Peotone Weather
Station Historical Data
Daily Summary for January 10, 2012 Units:  English    Metric   Both
« Previous Day
Next Day »
Daily Weekly Monthly Yearly Custom
  High: Low: Average:
Temperature: 52.8 °F 26.5 °F 37.1 °F
Dew Point: 36.3 °F 22.8 °F 29.7 °F
Humidity: 90% 51% 76%
Wind Speed: 14.0mph 0.0mph 3mph
Wind Gust: 17.0mph - -
Wind- - SW
Pressure: 30.12 in 29.85 in -
Precipitation: 0.00 in    
Historical Graphs
 
 
Tabular Data for January 10, 2012
Time Temperature Dew Point Pressure Wind Wind Speed Wind Gust Humidity Rainfall Rate (Hourly) solar Conditions
00:01 34.8 °F 28.6 °F 30.04 in West 10.0 mph 10.0 mph 78% 0.00 in 0.00 W/m2
00:03 34.7 °F 28.2 °F 30.04 in WNW 4.0 mph 9.0 mph 77% 0.00 in 0.00 W/m2
00:05 34.6 °F 28.1 °F 30.04 in West 6.0 mph 10.0 mph 77% 0.00 in 0.00 W/m2
00:06 34.6 °F 28.5 °F 30.04 in WNW 6.0 mph 8.0 mph 78% 0.00 in 0.00 W/m2
00:07 34.6 °F 28.5 °F 30.04 in WNW 4.0 mph 8.0 mph 78% 0.00 in 0.00 W/m2
00:08 34.5 °F 28.4 °F 30.04 in WNW 5.0 mph 5.0 mph 78% 0.00 in 0.00 W/m2
00:10 34.5 °F 28.4 °F 30.04 in WNW 6.0 mph 10.0 mph 78% 0.00 in 0.00 W/m2
00:11 34.4 °F 28.3 °F 30.04 in WNW 6.0 mph 9.0 mph 78% 0.00 in 0.00 W/m2
00:12 34.4 °F 28.3 °F 30.04 in WNW 6.0 mph 9.0 mph 78% 0.00 in 0.00 W/m2
00:14 34.4 °F 28.3 °F 30.04 in WNW 6.0 mph 6.0 mph 78% 0.00 in 0.00 W/m2
00:15 34.3 °F 28.2 °F 30.04 in WNW 4.0 mph 7.0 mph 78% 0.00 in 0.00 W/m2
00:17 34.3 °F 28.2 °F 30.04 in WNW 4.0 mph 6.0 mph 78% 0.00 in 0.00 W/m2
00:18 34.3 °F 28.2 °F 30.04 in WNW 5.0 mph 6.0 mph 78% 0.00 in 0.00 W/m2
00:19 34.2 °F 28.1 °F 30.04 in WNW 4.0 mph 5.0 mph 78% 0.00 in 0.00 W/m2
00:20 34.2 °F 28.1 °F 30.04 in WNW 3.0 mph 5.0 mph 78% 0.00 in 0.00 W/m2
00:22 34.2 °F 28.4 °F 30.04 in WNW 4.0 mph 6.0 mph 79% 0.00 in 0.00 W/m2
00:23 34.2 °F 28.4 °F 30.04 in WNW 5.0 mph 5.0 mph 79% 0.00 in 0.00 W/m2
00:24 34.1 °F 28.3 °F 30.04 in WNW 5.0 mph 5.0 mph 79% 0.00 in 0.00 W/m2
00:25 34.1 °F 28.3 °F 30.04 in WNW 4.0 mph 7.0 mph 79% 0.00 in 0.00 W/m2
00:27 34.1 °F 28.0 °F 30.04 in WNW 4.0 mph 5.0 mph 78% 0.00 in 0.00 W/m2
00:28 34.0 °F 27.9 °F 30.04 in WNW 4.0 mph 5.0 mph 78% 0.00 in 0.00 W/m2
00:30 34.0 °F 28.2 °F 30.04 in WNW 4.0 mph 5.0 mph 79% 0.00 in 0.00 W/m2
00:32 33.9 °F 28.1 °F 30.04 in WNW 3.0 mph 6.0 mph 79% 0.00 in 0.00 W/m2
00:33 33.9 °F 28.1 °F 30.03 in WNW 3.0 mph 6.0 mph 79% 0.00 in 0.00 W/m2
00:36 33.8 °F 28.0 °F 30.04 in WNW 2.0 mph 3.0 mph 79% 0.00 in 0.00 W/m2
00:37 33.8 °F 28.0 °F 30.03 in WNW 2.0 mph 3.0 mph 79% 0.00 in 0.00 W/m2
00:39 33.7 °F 27.9 °F 30.04 in WNW 3.0 mph 4.0 mph 79% 0.00 in 0.00 W/m2
00:41 33.6 °F 27.8 °F 30.04 in WNW 4.0 mph 5.0 mph 79% 0.00 in 0.00 W/m2
00:42 33.6 °F 27.8 °F 30.04 in WNW 3.0 mph 4.0 mph 79% 0.00 in 0.00 W/m2
00:44 33.6 °F 27.8 °F 30.04 in WNW 4.0 mph 5.0 mph 79% 0.00 in 0.00 W/m2
00:46 33.5 °F 27.7 °F 30.04 in WNW 3.0 mph 4.0 mph 79% 0.00 in 0.00 W/m2
00:47 33.5 °F 27.7 °F 30.04 in WNW 4.0 mph 5.0 mph 79% 0.00 in 0.00 W/m2
00:48 33.5 °F 27.7 °F 30.04 in WNW 3.0 mph 5.0 mph 79% 0.00 in 0.00 W/m2
00:50 33.5 °F 27.7 °F 30.04 in WNW 3.0 mph 4.0 mph 79% 0.00 in 0.00 W/m2
00:51 33.5 °F 28.0 °F 30.04 in WNW 3.0 mph 6.0 mph 80% 0.00 in 0.00 W/m2
00:52 33.5 °F 28.0 °F 30.04 in WNW 4.0 mph 6.0 mph 80% 0.00 in 0.00 W/m2
00:53 33.5 °F 28.0 °F 30.04 in WNW 4.0 mph 6.0 mph 80% 0.00 in 0.00 W/m2
00:55 33.5 °F 28.0 °F 30.04 in WNW 1.0 mph 5.0 mph 80% 0.00 in 0.00 W/m2
00:57 33.5 °F 28.0 °F 30.04 in WNW 1.0 mph 5.0 mph 80% 0.00 in 0.00 W/m2
00:58 33.6 °F 28.1 °F 30.04 in WNW 3.0 mph 5.0 mph 80% 0.00 in 0.00 W/m2
00:59 33.6 °F 28.1 °F 30.03 in WNW 3.0 mph 5.0 mph 80% 0.00 in 0.00 W/m2
01:01 33.6 °F 28.1 °F 30.03 in WNW 2.0 mph 3.0 mph 80% 0.00 in 0.00 W/m2
01:03 33.6 °F 28.1 °F 30.03 in WNW 5.0 mph 5.0 mph 80% 0.00 in 0.00 W/m2
01:04 33.6 °F 28.1 °F 30.04 in WNW 2.0 mph 5.0 mph 80% 0.00 in 0.00 W/m2
01:06 33.6 °F 28.1 °F 30.03 in WNW 2.0 mph 5.0 mph 80% 0.00 in 0.00 W/m2
01:08 33.6 °F 28.1 °F 30.03 in WNW 2.0 mph 4.0 mph 80% 0.00 in 0.00 W/m2
01:10 33.6 °F 28.1 °F 30.03 in WNW 2.0 mph 4.0 mph 80% 0.00 in 0.00 W/m2
01:12 33.7 °F 28.2 °F 30.03 in WNW 2.0 mph 4.0 mph 80% 0.00 in 0.00 W/m2
01:13 33.6 °F 28.1 °F 30.03 in WNW 3.0 mph 4.0 mph 80% 0.00 in 0.00 W/m2
01:15 33.6 °F 28.1 °F 30.03 in WNW 3.0 mph 5.0 mph 80% 0.00 in 0.00 W/m2
01:17 33.6 °F 28.1 °F 30.04 in WNW 3.0 mph 6.0 mph 80% 0.00 in 0.00 W/m2
01:18 33.6 °F 28.1 °F 30.04 in WNW 5.0 mph 6.0 mph 80% 0.00 in 0.00 W/m2
01:19 33.6 °F 28.1 °F 30.04 in WNW 3.0 mph 5.0 mph 80% 0.00 in 0.00 W/m2
01:20 33.6 °F 28.1 °F 30.04 in WNW 4.0 mph 5.0 mph 80% 0.00 in 0.00 W/m2
01:21 33.6 °F 28.1 °F 30.04 in WNW 3.0 mph 5.0 mph 80% 0.00 in 0.00 W/m2
01:23 33.6 °F 28.1 °F 30.04 in WNW 6.0 mph 6.0 mph 80% 0.00 in 0.00 W/m2
01:24 33.5 °F 28.0 °F 30.04 in WNW 3.0 mph 6.0 mph 80% 0.00 in 0.00 W/m2
01:25 33.5 °F 28.0 °F 30.04 in WNW 2.0 mph 7.0 mph 80% 0.00 in 0.00 W/m2
01:26 33.5 °F 28.0 °F 30.04 in WNW 5.0 mph 7.0 mph 80% 0.00 in 0.00 W/m2
01:28 33.5 °F 28.0 °F 30.04 in WNW 3.0 mph 5.0 mph 80% 0.00 in 0.00 W/m2
01:29 33.5 °F 28.0 °F 30.04 in WNW 4.0 mph 5.0 mph 80% 0.00 in 0.00 W/m2
01:31 33.5 °F 28.0 °F 30.04 in WNW 6.0 mph 6.0 mph 80% 0.00 in 0.00 W/m2
01:33 33.5 °F 28.0 °F 30.04 in WNW 2.0 mph 7.0 mph 80% 0.00 in 0.00 W/m2
01:34 33.5 °F 28.0 °F 30.04 in WNW 5.0 mph 9.0 mph 80% 0.00 in 0.00 W/m2
01:37 33.4 °F 27.9 °F 30.04 in WNW 4.0 mph 6.0 mph 80% 0.00 in 0.00 W/m2
01:39 33.4 °F 28.2 °F 30.04 in WNW 4.0 mph 4.0 mph 81% 0.00 in 0.00 W/m2
01:40 33.4 °F 28.2 °F 30.04 in WNW 3.0 mph 6.0 mph 81% 0.00 in 0.00 W/m2
01:43 33.3 °F 28.1 °F 30.04 in WNW 3.0 mph 4.0 mph 81% 0.00 in 0.00 W/m2
01:44 33.3 °F 28.1 °F 30.04 in WNW 4.0 mph 5.0 mph 81% 0.00 in 0.00 W/m2
01:45 33.3 °F 28.1 °F 30.04 in WNW 4.0 mph 5.0 mph 81% 0.00 in 0.00 W/m2
01:46 33.3 °F 28.1 °F 30.04 in WNW 5.0 mph 5.0 mph 81% 0.00 in 0.00 W/m2
01:48 33.3 °F 28.1 °F 30.04 in WNW 3.0 mph 6.0 mph 81% 0.00 in 0.00 W/m2
01:49 33.3 °F 28.1 °F 30.04 in WNW 5.0 mph 5.0 mph 81% 0.00 in 0.00 W/m2
01:50 33.2 °F 28.0 °F 30.04 in WNW 5.0 mph 5.0 mph 81% 0.00 in 0.00 W/m2
01:51 33.2 °F 28.0 °F 30.04 in WNW 4.0 mph 5.0 mph 81% 0.00 in 0.00 W/m2
01:52 33.2 °F 28.0 °F 30.04 in WNW 3.0 mph 5.0 mph 81% 0.00 in 0.00 W/m2
01:53 33.2 °F 28.0 °F 30.04 in WNW 3.0 mph 4.0 mph 81% 0.00 in 0.00 W/m2
01:54 33.1 °F 27.9 °F 30.04 in WNW 2.0 mph 5.0 mph 81% 0.00 in 0.00 W/m2
01:56 33.1 °F 27.9 °F 30.04 in WNW 4.0 mph 4.0 mph 81% 0.00 in 0.00 W/m2
01:57 33.1 °F 27.9 °F 30.04 in WNW 6.0 mph 6.0 mph 81% 0.00 in 0.00 W/m2
01:58 33.0 °F 27.8 °F 30.04 in WNW 10.0 mph 10.0 mph 81% 0.00 in 0.00 W/m2
02:01 33.0 °F 27.8 °F 30.04 in WNW 5.0 mph 8.0 mph 81% 0.00 in 0.00 W/m2
02:02 32.9 °F 27.7 °F 30.04 in WNW 6.0 mph 7.0 mph 81% 0.00 in 0.00 W/m2
02:03 32.9 °F 27.7 °F 30.04 in WNW 4.0 mph 7.0 mph 81% 0.00 in 0.00 W/m2
02:06 32.9 °F 27.7 °F 30.04 in WNW 5.0 mph 7.0 mph 81% 0.00 in 0.00 W/m2
02:08 32.9 °F 27.7 °F 30.05 in WNW 3.0 mph 6.0 mph 81% 0.00 in 0.00 W/m2
02:09 32.9 °F 27.7 °F 30.05 in WNW 4.0 mph 6.0 mph 81% 0.00 in 0.00 W/m2
02:11 33.0 °F 27.8 °F 30.05 in WNW 3.0 mph 6.0 mph 81% 0.00 in 0.00 W/m2
02:13 33.0 °F 28.1 °F 30.05 in WNW 3.0 mph 8.0 mph 82% 0.00 in 0.00 W/m2
02:14 33.0 °F 28.1 °F 30.05 in WNW 5.0 mph 8.0 mph 82% 0.00 in 0.00 W/m2
02:16 33.0 °F 28.1 °F 30.05 in WNW 5.0 mph 6.0 mph 82% 0.00 in 0.00 W/m2
02:17 33.0 °F 28.1 °F 30.04 in WNW 4.0 mph 6.0 mph 82% 0.00 in 0.00 W/m2
02:19 33.0 °F 28.1 °F 30.05 in WNW 4.0 mph 6.0 mph 82% 0.00 in 0.00 W/m2
02:20 33.0 °F 28.1 °F 30.05 in WNW 4.0 mph 5.0 mph 82% 0.00 in 0.00 W/m2
02:22 33.0 °F 28.1 °F 30.05 in WNW 2.0 mph 4.0 mph 82% 0.00 in 0.00 W/m2
02:23 33.1 °F 28.2 °F 30.05 in WNW 2.0 mph 4.0 mph 82% 0.00 in 0.00 W/m2
02:25 33.1 °F 27.9 °F 30.05 in WNW 2.0 mph 4.0 mph 81% 0.00 in 0.00 W/m2
02:27 33.0 °F 27.8 °F 30.05 in WNW 3.0 mph 4.0 mph 81% 0.00 in 0.00 W/m2
02:29 33.0 °F 27.8 °F 30.05 in WNW 2.0 mph 4.0 mph 81% 0.00 in 0.00 W/m2
02:32 33.0 °F 27.8 °F 30.05 in WNW 2.0 mph 4.0 mph 81% 0.00 in 0.00 W/m2
02:34 32.9 °F 27.7 °F 30.05 in WNW 2.0 mph 2.0 mph 81% 0.00 in 0.00 W/m2
02:36 32.8 °F 27.6 °F 30.05 in WNW 2.0 mph 3.0 mph 81% 0.00 in 0.00 W/m2
02:37 32.8 °F 27.6 °F 30.05 in WNW 1.0 mph 3.0 mph 81% 0.00 in 0.00 W/m2
02:39 32.8 °F 27.6 °F 30.05 in WNW 3.0 mph 3.0 mph 81% 0.00 in 0.00 W/m2
02:42 32.7 °F 27.5 °F 30.05 in WNW 1.0 mph 3.0 mph 81% 0.00 in 0.00 W/m2
02:44 32.6 °F 27.4 °F 30.05 in WNW 2.0 mph 3.0 mph 81% 0.00 in 0.00 W/m2
02:47 32.5 °F 27.3 °F 30.05 in WNW 1.0 mph 3.0 mph 81% 0.00 in 0.00 W/m2
02:48 32.5 °F 27.3 °F 30.05 in WNW 2.0 mph 3.0 mph 81% 0.00 in 0.00 W/m2
02:50 32.4 °F 27.2 °F 30.05 in Calm   1.0 mph 81% 0.00 in 0.00 W/m2
02:52 32.3 °F 27.1 °F 30.05 in Calm   1.0 mph 81% 0.00 in 0.00 W/m2
02:53 32.3 °F 27.1 °F 30.05 in WNW 2.0 mph 2.0 mph 81% 0.00 in 0.00 W/m2
02:55 32.2 °F 27.0 °F 30.05 in Calm   3.0 mph 81% 0.00 in 0.00 W/m2
02:56 32.2 °F 27.0 °F 30.05 in WNW 2.0 mph 2.0 mph 81% 0.00 in 0.00 W/m2
02:57 32.2 °F 27.0 °F 30.05 in WNW 2.0 mph 2.0 mph 81% 0.00 in 0.00 W/m2
02:58 32.1 °F 26.9 °F 30.05 in Calm   4.0 mph 81% 0.00 in 0.00 W/m2
02:59 32.1 °F 26.9 °F 30.05 in WNW 1.0 mph 4.0 mph 81% 0.00 in 0.00 W/m2
03:00 32.1 °F 26.9 °F 30.05 in WNW 1.0 mph 2.0 mph 81% 0.00 in 0.00 W/m2
03:01 32.0 °F 26.8 °F 30.05 in WNW 2.0 mph 2.0 mph 81% 0.00 in 0.00 W/m2
03:02 32.0 °F 26.8 °F 30.06 in Calm   2.0 mph 81% 0.00 in 0.00 W/m2
03:04 31.9 °F 26.7 °F 30.05 in WNW 2.0 mph 3.0 mph 81% 0.00 in 0.00 W/m2
03:06 31.8 °F 26.6 °F 30.05 in WNW 2.0 mph 3.0 mph 81% 0.00 in 0.00 W/m2
03:07 31.8 °F 26.6 °F 30.05 in WNW 2.0 mph 3.0 mph 81% 0.00 in 0.00 W/m2
03:09 31.7 °F 26.5 °F 30.05 in Calm   3.0 mph 81% 0.00 in 0.00 W/m2
03:11 31.7 °F 26.5 °F 30.05 in WNW 2.0 mph 2.0 mph 81% 0.00 in 0.00 W/m2
03:12 31.6 °F 26.5 °F 30.05 in WNW 2.0 mph 2.0 mph 81% 0.00 in 0.00 W/m2
03:14 31.6 °F 26.5 °F 30.05 in WNW 2.0 mph 2.0 mph 81% 0.00 in 0.00 W/m2
03:15 31.6 °F 26.5 °F 30.05 in Calm   2.0 mph 81% 0.00 in 0.00 W/m2
03:17 31.5 °F 26.4 °F 30.05 in Calm     81% 0.00 in 0.00 W/m2
03:18 31.5 °F 26.4 °F 30.05 in Calm     81% 0.00 in 0.00 W/m2
03:19 31.4 °F 26.2 °F 30.05 in Calm     81% 0.00 in 0.00 W/m2
03:20 31.4 °F 26.2 °F 30.05 in Calm   1.0 mph 81% 0.00 in 0.00 W/m2
03:22 31.4 °F 26.2 °F 30.05 in Calm   1.0 mph 81% 0.00 in 0.00 W/m2
03:23 31.4 °F 26.2 °F 30.05 in Calm   1.0 mph 81% 0.00 in 0.00 W/m2
03:24 31.3 °F 26.2 °F 30.05 in Calm     81% 0.00 in 0.00 W/m2
03:27 31.2 °F 26.1 °F 30.05 in Calm     81% 0.00 in 0.00 W/m2
03:28 31.2 °F 26.1 °F 30.05 in Calm     81% 0.00 in 0.00 W/m2
03:30 31.2 °F 26.1 °F 30.05 in Calm     81% 0.00 in 0.00 W/m2
03:33 31.1 °F 26.0 °F 30.05 in Calm   2.0 mph 81% 0.00 in 0.00 W/m2
03:34 31.0 °F 25.9 °F 30.05 in Calm   1.0 mph 81% 0.00 in 0.00 W/m2
03:36 31.0 °F 25.9 °F 30.05 in Calm     81% 0.00 in 0.00 W/m2
03:38 30.9 °F 25.8 °F 30.05 in Calm     81% 0.00 in 0.00 W/m2
03:41 30.7 °F 25.6 °F 30.06 in Calm     81% 0.00 in 0.00 W/m2
03:43 30.6 °F 25.5 °F 30.06 in Calm     81% 0.00 in 0.00 W/m2
03:46 30.4 °F 25.3 °F 30.05 in Calm     81% 0.00 in 0.00 W/m2
03:47 30.4 °F 25.3 °F 30.06 in Calm     81% 0.00 in 0.00 W/m2
03:48 30.4 °F 25.3 °F 30.06 in Calm     81% 0.00 in 0.00 W/m2
03:52 30.1 °F 25.0 °F 30.05 in Calm     81% 0.00 in 0.00 W/m2
03:53 30.1 °F 25.0 °F 30.05 in WNW 1.0 mph 2.0 mph 81% 0.00 in 0.00 W/m2
03:57 29.9 °F 25.1 °F 30.06 in WNW 2.0 mph 2.0 mph 82% 0.00 in 0.00 W/m2
03:58 29.8 °F 25.0 °F 30.06 in WNW 2.0 mph 2.0 mph 82% 0.00 in 0.00 W/m2
03:59 29.8 °F 25.0 °F 30.06 in WNW 2.0 mph 2.0 mph 82% 0.00 in 0.00 W/m2
04:02 29.7 °F 24.9 °F 30.06 in WNW 2.0 mph 2.0 mph 82% 0.00 in 0.00 W/m2
04:03 29.7 °F 24.9 °F 30.06 in WNW 1.0 mph 2.0 mph 82% 0.00 in 0.00 W/m2
04:05 29.6 °F 24.8 °F 30.06 in Calm   2.0 mph 82% 0.00 in 0.00 W/m2
04:07 29.5 °F 24.7 °F 30.06 in WNW 1.0 mph 2.0 mph 82% 0.00 in 0.00 W/m2
04:09 29.5 °F 24.7 °F 30.06 in Calm   2.0 mph 82% 0.00 in 0.00 W/m2
04:10 29.4 °F 24.6 °F 30.06 in Calm   1.0 mph 82% 0.00 in 0.00 W/m2
04:12 29.4 °F 24.6 °F 30.06 in Calm     82% 0.00 in 0.00 W/m2
04:14 29.4 °F 24.6 °F 30.06 in Calm     82% 0.00 in 0.00 W/m2
04:15 29.3 °F 24.5 °F 30.06 in Calm   1.0 mph 82% 0.00 in 0.00 W/m2
04:18 29.2 °F 24.4 °F 30.06 in Calm     82% 0.00 in 0.00 W/m2
04:19 29.2 °F 24.4 °F 30.06 in Calm     82% 0.00 in 0.00 W/m2
04:20 29.2 °F 24.4 °F 30.06 in Calm     82% 0.00 in 0.00 W/m2
04:23 29.1 °F 24.3 °F 30.06 in WNW 1.0 mph 1.0 mph 82% 0.00 in 0.00 W/m2
04:25 29.0 °F 24.2 °F 30.06 in Calm   1.0 mph 82% 0.00 in 0.00 W/m2
04:26 29.0 °F 24.2 °F 30.06 in Calm   1.0 mph 82% 0.00 in 0.00 W/m2
04:29 29.0 °F 24.2 °F 30.06 in Calm   2.0 mph 82% 0.00 in 0.00 W/m2
04:30 28.9 °F 24.1 °F 30.06 in Calm     82% 0.00 in 0.00 W/m2
04:31 28.9 °F 24.1 °F 30.06 in Calm     82% 0.00 in 0.00 W/m2
04:34 28.8 °F 24.0 °F 30.06 in Calm     82% 0.00 in 0.00 W/m2
04:35 28.7 °F 23.9 °F 30.06 in Calm   1.0 mph 82% 0.00 in 0.00 W/m2
04:37 28.7 °F 23.9 °F 30.06 in Calm     82% 0.00 in 0.00 W/m2
04:39 28.6 °F 23.8 °F 30.06 in Calm     82% 0.00 in 0.00 W/m2
04:40 28.6 °F 23.8 °F 30.06 in Calm     82% 0.00 in 0.00 W/m2
04:41 28.6 °F 23.8 °F 30.06 in Calm     82% 0.00 in 0.00 W/m2
04:42 28.5 °F 23.7 °F 30.06 in Calm     82% 0.00 in 0.00 W/m2
04:43 28.5 °F 23.7 °F 30.06 in Calm     82% 0.00 in 0.00 W/m2
04:44 28.5 °F 23.7 °F 30.06 in Calm     82% 0.00 in 0.00 W/m2
04:45 28.4 °F 23.6 °F 30.06 in Calm     82% 0.00 in 0.00 W/m2
04:46 28.4 °F 23.6 °F 30.06 in Calm     82% 0.00 in 0.00 W/m2
04:47 28.4 °F 23.6 °F 30.06 in Calm     82% 0.00 in 0.00 W/m2
04:48 28.4 °F 23.6 °F 30.06 in Calm     82% 0.00 in 0.00 W/m2
04:50 28.3 °F 23.5 °F 30.06 in WNW 2.0 mph 2.0 mph 82% 0.00 in 0.00 W/m2
04:51 28.3 °F 23.5 °F 30.07 in WNW 2.0 mph 2.0 mph 82% 0.00 in 0.00 W/m2
04:52 28.2 °F 23.4 °F 30.06 in WNW 2.0 mph 2.0 mph 82% 0.00 in 0.00 W/m2
04:53 28.2 °F 23.4 °F 30.06 in WNW 1.0 mph 2.0 mph 82% 0.00 in 0.00 W/m2
04:55 28.2 °F 23.4 °F 30.06 in WNW 2.0 mph 3.0 mph 82% 0.00 in 0.00 W/m2
04:56 28.1 °F 23.6 °F 30.07 in WNW 1.0 mph 2.0 mph 83% 0.00 in 0.00 W/m2
04:58 28.1 °F 23.6 °F 30.07 in Calm   2.0 mph 83% 0.00 in 0.00 W/m2
04:59 28.1 °F 23.6 °F 30.07 in Calm   2.0 mph 83% 0.00 in 0.00 W/m2
05:00 28.0 °F 23.5 °F 30.06 in Calm   2.0 mph 83% 0.00 in 0.00 W/m2
05:01 28.0 °F 23.5 °F 30.06 in WNW 1.0 mph 1.0 mph 83% 0.00 in 0.00 W/m2
05:02 28.0 °F 23.5 °F 30.06 in Calm   1.0 mph 83% 0.00 in 0.00 W/m2
05:03 28.0 °F 23.5 °F 30.06 in WNW 1.0 mph 1.0 mph 83% 0.00 in 0.00 W/m2
05:04 28.0 °F 23.5 °F 30.06 in Calm   3.0 mph 83% 0.00 in 0.00 W/m2
05:06 27.9 °F 23.4 °F 30.07 in WNW 1.0 mph 2.0 mph 83% 0.00 in 0.00 W/m2
05:07 27.9 °F 23.4 °F 30.07 in WNW 2.0 mph 2.0 mph 83% 0.00 in 0.00 W/m2
05:08 27.9 °F 23.4 °F 30.06 in WNW 1.0 mph 2.0 mph 83% 0.00 in 0.00 W/m2
05:10 27.8 °F 23.3 °F 30.06 in Calm   1.0 mph 83% 0.00 in 0.00 W/m2
05:11 27.8 °F 23.3 °F 30.06 in Calm   2.0 mph 83% 0.00 in 0.00 W/m2
05:13 27.8 °F 23.3 °F 30.06 in Calm   2.0 mph 83% 0.00 in 0.00 W/m2
05:14 27.8 °F 23.3 °F 30.06 in Calm   1.0 mph 83% 0.00 in 0.00 W/m2
05:15 27.7 °F 23.2 °F 30.06 in WNW 1.0 mph 1.0 mph 83% 0.00 in 0.00 W/m2
05:17 27.7 °F 23.2 °F 30.06 in Calm     83% 0.00 in 0.00 W/m2
05:18 27.7 °F 23.2 °F 30.06 in Calm     83% 0.00 in 0.00 W/m2
05:20 27.6 °F 23.1 °F 30.06 in Calm   2.0 mph 83% 0.00 in 0.00 W/m2
05:23 27.6 °F 23.1 °F 30.06 in Calm     83% 0.00 in 0.00 W/m2
05:24 27.6 °F 23.1 °F 30.06 in Calm     83% 0.00 in 0.00 W/m2
05:26 27.5 °F 23.0 °F 30.06 in Calm     83% 0.00 in 0.00 W/m2
05:28 27.5 °F 23.0 °F 30.06 in Calm     83% 0.00 in 0.00 W/m2
05:29 27.4 °F 22.9 °F 30.06 in Calm     83% 0.00 in 0.00 W/m2
05:33 27.4 °F 22.9 °F 30.06 in WNW 1.0 mph 2.0 mph 83% 0.00 in 0.00 W/m2
05:34 27.4 °F 23.2 °F 30.07 in WNW 2.0 mph 3.0 mph 84% 0.00 in 0.00 W/m2
05:35 27.4 °F 23.2 °F 30.07 in WNW 4.0 mph 4.0 mph 84% 0.00 in 0.00 W/m2
05:38 27.4 °F 23.2 °F 30.07 in Calm   2.0 mph 84% 0.00 in 0.00 W/m2
05:40 27.4 °F 23.2 °F 30.07 in Calm   3.0 mph 84% 0.00 in 0.00 W/m2
05:41 27.5 °F 23.3 °F 30.07 in Calm     84% 0.00 in 0.00 W/m2
05:42 27.4 °F 23.2 °F 30.07 in Calm     84% 0.00 in 0.00 W/m2
05:44 27.4 °F 23.2 °F 30.07 in WNW 2.0 mph 2.0 mph 84% 0.00 in 0.00 W/m2
05:45 27.4 °F 23.5 °F 30.07 in WNW 2.0 mph 4.0 mph 85% 0.00 in 0.00 W/m2
05:46 27.4 °F 23.5 °F 30.07 in Calm   5.0 mph 85% 0.00 in 0.00 W/m2
05:48 27.4 °F 23.5 °F 30.07 in WNW 4.0 mph 4.0 mph 85% 0.00 in 0.00 W/m2
05:49 27.4 °F 23.5 °F 30.07 in WNW 2.0 mph 4.0 mph 85% 0.00 in 0.00 W/m2
05:50 27.4 °F 23.5 °F 30.07 in WNW 2.0 mph 2.0 mph 85% 0.00 in 0.00 W/m2
05:51 27.4 °F 23.5 °F 30.07 in Calm   2.0 mph 85% 0.00 in 0.00 W/m2
05:53 27.3 °F 23.4 °F 30.07 in Calm     85% 0.00 in 0.00 W/m2
05:54 27.3 °F 23.4 °F 30.07 in Calm     85% 0.00 in 0.00 W/m2
05:55 27.3 °F 23.4 °F 30.07 in Calm     85% 0.00 in 0.00 W/m2
05:56 27.3 °F 23.4 °F 30.07 in Calm   2.0 mph 85% 0.00 in 0.00 W/m2
05:58 27.3 °F 23.4 °F 30.07 in WNW 1.0 mph 3.0 mph 85% 0.00 in 0.00 W/m2
05:59 27.3 °F 23.4 °F 30.07 in WNW 1.0 mph 3.0 mph 85% 0.00 in 0.00 W/m2
06:00 27.2 °F 23.3 °F 30.08 in Calm   2.0 mph 85% 0.00 in 0.00 W/m2
06:01 27.2 °F 23.3 °F 30.08 in Calm     85% 0.00 in 0.00 W/m2
06:02 27.2 °F 23.3 °F 30.08 in Calm     85% 0.00 in 0.00 W/m2
06:03 27.2 °F 23.3 °F 30.08 in Calm     85% 0.00 in 0.00 W/m2
06:04 27.2 °F 23.3 °F 30.07 in Calm     85% 0.00 in 0.00 W/m2
06:05 27.2 °F 23.3 °F 30.07 in WNW 1.0 mph 2.0 mph 85% 0.00 in 0.00 W/m2
06:06 27.2 °F 23.3 °F 30.07 in Calm   2.0 mph 85% 0.00 in 0.00 W/m2
06:07 27.2 °F 23.3 °F 30.07 in Calm   1.0 mph 85% 0.00 in 0.00 W/m2
06:08 27.1 °F 23.2 °F 30.07 in Calm     85% 0.00 in 0.00 W/m2
06:10 27.1 °F 23.2 °F 30.07 in Calm     85% 0.00 in 0.00 W/m2
06:11 27.1 °F 23.2 °F 30.07 in Calm     85% 0.00 in 0.00 W/m2
06:12 27.1 °F 23.2 °F 30.07 in Calm     85% 0.00 in 0.00 W/m2
06:14 27.0 °F 23.1 °F 30.07 in Calm     85% 0.00 in 0.00 W/m2
06:15 27.0 °F 23.1 °F 30.08 in Calm     85% 0.00 in 0.00 W/m2
06:16 27.0 °F 23.1 °F 30.08 in Calm     85% 0.00 in 0.00 W/m2
06:17 27.0 °F 23.1 °F 30.08 in Calm     85% 0.00 in 0.00 W/m2
06:19 26.9 °F 23.0 °F 30.08 in Calm     85% 0.00 in 0.00 W/m2
06:20 26.9 °F 23.0 °F 30.08 in Calm     85% 0.00 in 0.00 W/m2
06:22 26.9 °F 23.0 °F 30.08 in WNW 1.0 mph 2.0 mph 85% 0.00 in 0.00 W/m2
06:23 26.9 °F 23.0 °F 30.08 in Calm   2.0 mph 85% 0.00 in 0.00 W/m2
06:25 26.9 °F 23.0 °F 30.08 in Calm     85% 0.00 in 0.00 W/m2
06:27 26.8 °F 22.9 °F 30.08 in Calm     85% 0.00 in 0.00 W/m2
06:28 26.8 °F 22.9 °F 30.08 in Calm     85% 0.00 in 0.00 W/m2
06:29 26.8 °F 22.9 °F 30.08 in WNW 1.0 mph 1.0 mph 85% 0.00 in 0.00 W/m2
06:30 26.8 °F 22.9 °F 30.08 in Calm   1.0 mph 85% 0.00 in 0.00 W/m2
06:32 26.7 °F 22.8 °F 30.08 in Calm   2.0 mph 85% 0.00 in 0.00 W/m2
06:33 26.8 °F 22.9 °F 30.08 in Calm   2.0 mph 85% 0.00 in 0.00 W/m2
06:36 26.7 °F 22.8 °F 30.08 in WNW 2.0 mph 2.0 mph 85% 0.00 in 0.00 W/m2
06:38 26.7 °F 22.8 °F 30.08 in WNW 1.0 mph 2.0 mph 85% 0.00 in 0.00 W/m2
06:41 26.7 °F 23.1 °F 30.08 in WNW 2.0 mph 3.0 mph 86% 0.00 in 0.00 W/m2
06:43 26.6 °F 23.0 °F 30.08 in WNW 1.0 mph 2.0 mph 86% 0.00 in 0.00 W/m2
06:45 26.6 °F 23.0 °F 30.08 in WNW 2.0 mph 3.0 mph 86% 0.00 in 0.00 W/m2
06:46 26.6 °F 23.0 °F 30.08 in WNW 2.0 mph 3.0 mph 86% 0.00 in 0.00 W/m2
06:49 26.6 °F 23.0 °F 30.09 in WNW 3.0 mph 5.0 mph 86% 0.00 in 0.00 W/m2
06:50 26.5 °F 22.9 °F 30.09 in WNW 4.0 mph 4.0 mph 86% 0.00 in 0.00 W/m2
06:51 26.5 °F 22.9 °F 30.09 in Calm   4.0 mph 86% 0.00 in 0.00 W/m2
06:54 26.5 °F 22.9 °F 30.08 in WNW 2.0 mph 4.0 mph 86% 0.00 in 0.00 W/m2
06:55 26.5 °F 22.9 °F 30.08 in WNW 3.0 mph 4.0 mph 86% 0.00 in 0.00 W/m2
06:56 26.5 °F 22.9 °F 30.08 in West 3.0 mph 4.0 mph 86% 0.00 in 0.00 W/m2
06:57 26.6 °F 23.0 °F 30.08 in West 3.0 mph 4.0 mph 86% 0.00 in 0.00 W/m2
06:59 26.7 °F 23.1 °F 30.08 in West 2.0 mph 3.0 mph 86% 0.00 in 0.00 W/m2
07:00 26.7 °F 23.1 °F 30.08 in Calm   2.0 mph 86% 0.00 in 0.00 W/m2
07:01 26.7 °F 23.1 °F 30.08 in Calm   3.0 mph 86% 0.00 in 0.00 W/m2
07:02 26.8 °F 23.2 °F 30.08 in West 2.0 mph 2.0 mph 86% 0.00 in 0.00 W/m2
07:04 26.8 °F 23.2 °F 30.08 in Calm   3.0 mph 86% 0.00 in 0.00 W/m2
07:05 26.9 °F 23.3 °F 30.08 in West 3.0 mph 3.0 mph 86% 0.00 in 0.00 W/m2
07:06 26.9 °F 23.3 °F 30.08 in West 3.0 mph 4.0 mph 86% 0.00 in 0.00 W/m2
07:08 26.9 °F 23.6 °F 30.08 in West 2.0 mph 3.0 mph 87% 0.00 in 0.00 W/m2
07:09 27.0 °F 23.6 °F 30.08 in West 3.0 mph 4.0 mph 87% 0.00 in 0.00 W/m2
07:10 27.0 °F 23.6 °F 30.08 in West 3.0 mph 3.0 mph 87% 0.00 in 0.00 W/m2
07:11 27.1 °F 23.8 °F 30.08 in West 1.0 mph 4.0 mph 87% 0.00 in 0.00 W/m2
07:12 27.1 °F 23.8 °F 30.08 in West 1.0 mph 4.0 mph 87% 0.00 in 0.00 W/m2
07:13 27.1 °F 23.8 °F 30.08 in Calm   3.0 mph 87% 0.00 in 0.00 W/m2
07:15 27.1 °F 23.8 °F 30.08 in West 3.0 mph 3.0 mph 87% 0.00 in 0.00 W/m2
07:16 27.2 °F 23.9 °F 30.08 in West 1.0 mph 3.0 mph 87% 0.00 in 0.00 W/m2
07:17 27.2 °F 23.9 °F 30.08 in West 1.0 mph 3.0 mph 87% 0.00 in 5.00 W/m2
07:20 27.2 °F 23.9 °F 30.08 in West 1.0 mph 3.0 mph 87% 0.00 in 5.00 W/m2
07:21 27.2 °F 23.9 °F 30.08 in Calm   3.0 mph 87% 0.00 in 5.00 W/m2
07:22 27.2 °F 23.9 °F 30.08 in Calm   3.0 mph 87% 0.00 in 7.00 W/m2
07:23 27.2 °F 23.9 °F 30.08 in Calm   2.0 mph 87% 0.00 in 7.00 W/m2
07:26 27.2 °F 23.9 °F 30.08 in Calm   1.0 mph 87% 0.00 in 9.00 W/m2
07:27 27.2 °F 23.9 °F 30.08 in Calm     87% 0.00 in 9.00 W/m2
07:28 27.2 °F 23.9 °F 30.08 in West 1.0 mph 1.0 mph 87% 0.00 in 9.00 W/m2
07:31 27.2 °F 23.9 °F 30.08 in Calm   2.0 mph 87% 0.00 in 11.00 W/m2
07:32 27.2 °F 23.9 °F 30.08 in Calm   1.0 mph 87% 0.00 in 11.00 W/m2
07:34 27.2 °F 23.9 °F 30.08 in Calm     87% 0.00 in 12.00 W/m2
07:37 27.2 °F 23.9 °F 30.09 in Calm   1.0 mph 87% 0.00 in 12.00 W/m2
07:40 27.2 °F 23.9 °F 30.09 in Calm   1.0 mph 87% 0.00 in 14.00 W/m2
07:42 27.2 °F 23.9 °F 30.09 in Calm   3.0 mph 87% 0.00 in 16.00 W/m2
07:43 27.2 °F 23.9 °F 30.09 in Calm   3.0 mph 87% 0.00 in 16.00 W/m2
07:47 27.2 °F 23.9 °F 30.09 in Calm     87% 0.00 in 18.00 W/m2
07:48 27.1 °F 23.8 °F 30.09 in Calm     87% 0.00 in 18.00 W/m2
07:52 27.1 °F 23.8 °F 30.09 in Calm     87% 0.00 in 19.00 W/m2
07:53 27.1 °F 23.8 °F 30.09 in Calm     87% 0.00 in 19.00 W/m2
07:58 27.1 °F 23.8 °F 30.09 in Calm     87% 0.00 in 21.00 W/m2
07:59 27.1 °F 23.8 °F 30.09 in Calm     87% 0.00 in 21.00 W/m2
08:03 27.1 °F 23.8 °F 30.09 in Calm     87% 0.00 in 23.00 W/m2
08:04 27.0 °F 23.6 °F 30.09 in Calm     87% 0.00 in 23.00 W/m2
08:05 27.1 °F 23.8 °F 30.09 in Calm     87% 0.00 in 23.00 W/m2
08:09 27.1 °F 24.0 °F 30.10 in Calm   1.0 mph 88% 0.00 in 25.00 W/m2
08:10 27.2 °F 23.9 °F 30.10 in Calm     87% 0.00 in 25.00 W/m2
08:14 27.3 °F 24.2 °F 30.09 in Calm   1.0 mph 88% 0.00 in 26.00 W/m2
08:15 27.3 °F 24.2 °F 30.09 in Calm     88% 0.00 in 26.00 W/m2
08:19 27.4 °F 24.3 °F 30.10 in Calm     88% 0.00 in 26.00 W/m2
08:20 27.4 °F 24.3 °F 30.10 in Calm     88% 0.00 in 26.00 W/m2
08:22 27.5 °F 24.4 °F 30.10 in Calm     88% 0.00 in 28.00 W/m2
08:24 27.5 °F 24.4 °F 30.10 in West 1.0 mph 1.0 mph 88% 0.00 in 28.00 W/m2
08:25 27.5 °F 24.4 °F 30.10 in West 1.0 mph 2.0 mph 88% 0.00 in 28.00 W/m2
08:27 27.6 °F 24.5 °F 30.10 in Calm   1.0 mph 88% 0.00 in 28.00 W/m2
08:29 27.7 °F 24.6 °F 30.10 in Calm   1.0 mph 88% 0.00 in 28.00 W/m2
08:30 27.8 °F 24.7 °F 30.10 in Calm   1.0 mph 88% 0.00 in 28.00 W/m2
08:34 28.3 °F 25.5 °F 30.10 in Calm     89% 0.00 in 30.00 W/m2
08:35 28.3 °F 25.5 °F 30.10 in Calm     89% 0.00 in 30.00 W/m2
08:38 28.5 °F 25.7 °F 30.10 in SSE 1.0 mph 3.0 mph 89% 0.00 in 30.00 W/m2
08:39 28.6 °F 25.8 °F 30.11 in SSE 2.0 mph 2.0 mph 89% 0.00 in 30.00 W/m2
08:40 28.6 °F 25.8 °F 30.11 in Calm   2.0 mph 89% 0.00 in 30.00 W/m2
08:41 28.7 °F 25.9 °F 30.11 in Calm   2.0 mph 89% 0.00 in 30.00 W/m2
08:44 28.8 °F 26.0 °F 30.11 in Calm   2.0 mph 89% 0.00 in 32.00 W/m2
08:45 28.9 °F 26.1 °F 30.11 in Calm   1.0 mph 89% 0.00 in 32.00 W/m2
08:46 28.9 °F 26.1 °F 30.11 in Calm   1.0 mph 89% 0.00 in 32.00 W/m2
08:50 29.1 °F 26.3 °F 30.12 in Calm   3.0 mph 89% 0.00 in 32.00 W/m2
08:51 29.2 °F 26.4 °F 30.12 in Calm   1.0 mph 89% 0.00 in 33.00 W/m2
08:52 29.2 °F 26.4 °F 30.12 in South 1.0 mph 1.0 mph 89% 0.00 in 33.00 W/m2
08:55 29.5 °F 26.7 °F 30.12 in South 1.0 mph 1.0 mph 89% 0.00 in 33.00 W/m2
08:56 29.6 °F 26.8 °F 30.12 in Calm   1.0 mph 89% 0.00 in 33.00 W/m2
08:57 29.6 °F 26.8 °F 30.12 in South 1.0 mph 1.0 mph 89% 0.00 in 33.00 W/m2
09:01 29.9 °F 27.1 °F 30.12 in Calm   3.0 mph 89% 0.00 in 33.00 W/m2
09:02 30.0 °F 27.2 °F 30.12 in South 1.0 mph 2.0 mph 89% 0.00 in 33.00 W/m2
09:06 30.3 °F 27.5 °F 30.12 in Calm     89% 0.00 in 33.00 W/m2
09:07 30.4 °F 27.5 °F 30.12 in Calm     89% 0.00 in 33.00 W/m2
09:09 30.5 °F 27.6 °F 30.12 in Calm     89% 0.00 in 35.00 W/m2
09:12 30.6 °F 27.8 °F 30.12 in Calm   1.0 mph 89% 0.00 in 35.00 W/m2
09:13 30.8 °F 28.2 °F 30.12 in South 1.0 mph 2.0 mph 90% 0.00 in 35.00 W/m2
09:15 31.0 °F 28.4 °F 30.12 in South 1.0 mph 2.0 mph 90% 0.00 in 35.00 W/m2
09:17 31.3 °F 28.7 °F 30.12 in Calm     90% 0.00 in 35.00 W/m2
09:20 31.6 °F 29.0 °F 30.12 in South 1.0 mph 1.0 mph 90% 0.00 in 35.00 W/m2
09:22 31.8 °F 29.2 °F 30.12 in South 2.0 mph 3.0 mph 90% 0.00 in 35.00 W/m2
09:23 31.9 °F 29.3 °F 30.12 in South 1.0 mph 3.0 mph 90% 0.00 in 35.00 W/m2
09:24 32.0 °F 29.4 °F 30.12 in South 2.0 mph 3.0 mph 90% 0.00 in 37.00 W/m2
09:27 32.3 °F 29.7 °F 30.11 in South 2.0 mph 6.0 mph 90% 0.00 in 53.00 W/m2
09:28 32.5 °F 29.9 °F 30.10 in South 3.0 mph 4.0 mph 90% 0.00 in 37.00 W/m2
09:29 32.6 °F 30.0 °F 30.10 in South 3.0 mph 4.0 mph 90% 0.00 in 37.00 W/m2
09:30 32.7 °F 30.1 °F 30.10 in South 4.0 mph 4.0 mph 90% 0.00 in 35.00 W/m2
09:32 33.0 °F 30.4 °F 30.09 in South 4.0 mph 8.0 mph 90% 0.00 in 37.00 W/m2
09:34 33.5 °F 30.9 °F 30.09 in SSW 5.0 mph 10.0 mph 90% 0.00 in 37.00 W/m2
09:36 33.6 °F 31.0 °F 30.09 in SSW 5.0 mph 7.0 mph 90% 0.00 in 37.00 W/m2
09:37 33.9 °F 31.3 °F 30.09 in SSW 5.0 mph 10.0 mph 90% 0.00 in 35.00 W/m2
09:40 34.3 °F 31.4 °F 30.09 in SSW 12.0 mph 13.0 mph 89% 0.00 in 35.00 W/m2
09:41 34.6 °F 31.7 °F 30.09 in SSW 4.0 mph 13.0 mph 89% 0.00 in 35.00 W/m2
09:42 34.9 °F 32.0 °F 30.08 in South 6.0 mph 9.0 mph 89% 0.00 in 35.00 W/m2
09:43 34.9 °F 32.0 °F 30.08 in South 5.0 mph 9.0 mph 89% 0.00 in 33.00 W/m2
09:44 35.1 °F 32.2 °F 30.08 in South 3.0 mph 9.0 mph 89% 0.00 in 33.00 W/m2
09:45 35.3 °F 32.4 °F 30.08 in SSW 2.0 mph 10.0 mph 89% 0.00 in 33.00 W/m2
09:46 35.3 °F 32.4 °F 30.08 in SSW 2.0 mph 10.0 mph 89% 0.00 in 33.00 W/m2
09:48 35.5 °F 32.3 °F 30.08 in South 6.0 mph 11.0 mph 88% 0.00 in 33.00 W/m2
09:49 35.7 °F 32.5 °F 30.08 in South 6.0 mph 11.0 mph 88% 0.00 in 33.00 W/m2
09:51 36.1 °F 32.9 °F 30.08 in SSW 8.0 mph 11.0 mph 88% 0.00 in 33.00 W/m2
09:52 36.3 °F 32.8 °F 30.08 in SSW 7.0 mph 9.0 mph 87% 0.00 in 33.00 W/m2
09:53 36.5 °F 33.0 °F 30.08 in SW 6.0 mph 11.0 mph 87% 0.00 in 33.00 W/m2
09:54 36.6 °F 32.8 °F 30.08 in SSW 7.0 mph 9.0 mph 86% 0.00 in 33.00 W/m2
09:57 37.0 °F 32.9 °F 30.08 in South 4.0 mph 7.0 mph 85% 0.00 in 33.00 W/m2
09:58 37.2 °F 33.1 °F 30.08 in South 11.0 mph 12.0 mph 85% 0.00 in 33.00 W/m2
09:59 37.3 °F 33.2 °F 30.08 in SSW 10.0 mph 12.0 mph 85% 0.00 in 33.00 W/m2
10:03 37.8 °F 33.1 °F 30.08 in South 6.0 mph 9.0 mph 83% 0.00 in 33.00 W/m2
10:04 37.9 °F 33.2 °F 30.08 in SSW 7.0 mph 12.0 mph 83% 0.00 in 33.00 W/m2
10:05 38.0 °F 33.0 °F 30.08 in SW 6.0 mph 12.0 mph 82% 0.00 in 35.00 W/m2
10:08 38.3 °F 33.0 °F 30.08 in SSW 6.0 mph 13.0 mph 81% 0.00 in 35.00 W/m2
10:09 38.4 °F 33.1 °F 30.08 in South 10.0 mph 13.0 mph 81% 0.00 in 35.00 W/m2
10:10 38.5 °F 32.9 °F 30.07 in South 7.0 mph 9.0 mph 80% 0.00 in 35.00 W/m2
10:14 38.9 °F 33.0 °F 30.07 in SSW 5.0 mph 12.0 mph 79% 0.00 in 35.00 W/m2
10:15 39.1 °F 33.2 °F 30.07 in South 4.0 mph 10.0 mph 79% 0.00 in 35.00 W/m2
10:19 39.5 °F 33.2 °F 30.07 in SSW 9.0 mph 13.0 mph 78% 0.00 in 37.00 W/m2
10:20 39.6 °F 33.0 °F 30.07 in South 10.0 mph 14.0 mph 77% 0.00 in 37.00 W/m2
10:21 39.7 °F 33.1 °F 30.07 in South 10.0 mph 15.0 mph 77% 0.00 in 35.00 W/m2
10:24 40.0 °F 33.1 °F 30.06 in South 5.0 mph 12.0 mph 76% 0.00 in 46.00 W/m2
10:26 40.3 °F 33.0 °F 30.06 in SSW 10.0 mph 14.0 mph 75% 0.00 in 40.00 W/m2
10:27 40.4 °F 33.1 °F 30.06 in South 9.0 mph 12.0 mph 75% 0.00 in 39.00 W/m2
10:29 40.6 °F 33.3 °F 30.06 in South 3.0 mph 6.0 mph 75% 0.00 in 37.00 W/m2
10:32 40.8 °F 33.2 °F 30.06 in SW 6.0 mph 17.0 mph 74% 0.00 in 37.00 W/m2
10:34 40.9 °F 32.9 °F 30.06 in SSE 12.0 mph 12.0 mph 73% 0.00 in 37.00 W/m2
10:37 41.0 °F 33.0 °F 30.06 in WSW 12.0 mph 16.0 mph 73% 0.00 in 116.00 W/m2
10:38 41.2 °F 33.2 °F 30.06 in SSW 14.0 mph 16.0 mph 73% 0.00 in 127.00 W/m2
10:40 41.3 °F 33.0 °F 30.06 in SSW 7.0 mph 9.0 mph 72% 0.00 in 109.00 W/m2
10:41 41.3 °F 33.0 °F 30.06 in SW 11.0 mph 11.0 mph 72% 0.00 in 149.00 W/m2
10:43 41.5 °F 33.2 °F 30.06 in WSW 11.0 mph 12.0 mph 72% 0.00 in 336.00 W/m2
10:44 41.6 °F 33.3 °F 30.06 in WSW 9.0 mph 13.0 mph 72% 0.00 in 411.00 W/m2
10:45 41.7 °F 33.0 °F 30.06 in SW 6.0 mph 13.0 mph 71% 0.00 in 415.00 W/m2
10:46 41.7 °F 33.0 °F 30.06 in SW 10.0 mph 13.0 mph 71% 0.00 in 299.00 W/m2
10:48 41.9 °F 33.2 °F 30.06 in SSW 5.0 mph 12.0 mph 71% 0.00 in 221.00 W/m2
10:49 42.0 °F 33.3 °F 30.06 in WSW 7.0 mph 10.0 mph 71% 0.00 in 244.00 W/m2
10:50 42.1 °F 33.4 °F 30.06 in South 12.0 mph 12.0 mph 71% 0.00 in 183.00 W/m2
10:51 42.2 °F 33.1 °F 30.06 in SSW 10.0 mph 12.0 mph 70% 0.00 in 79.00 W/m2
10:53 42.3 °F 33.2 °F 30.06 in SW 6.0 mph 11.0 mph 70% 0.00 in 86.00 W/m2
10:54 42.4 °F 33.3 °F 30.06 in SW 7.0 mph 11.0 mph 70% 0.00 in 65.00 W/m2
10:55 42.5 °F 33.4 °F 30.06 in SW 6.0 mph 11.0 mph 70% 0.00 in 49.00 W/m2
10:57 42.8 °F 33.3 °F 30.05 in SW 7.0 mph 11.0 mph 69% 0.00 in 39.00 W/m2
10:58 42.8 °F 33.3 °F 30.05 in SSW 5.0 mph 11.0 mph 69% 0.00 in 39.00 W/m2
11:00 42.9 °F 33.4 °F 30.05 in SW 9.0 mph 11.0 mph 69% 0.00 in 39.00 W/m2
11:02 43.0 °F 33.5 °F 30.05 in WSW 12.0 mph 14.0 mph 69% 0.00 in 39.00 W/m2
11:03 43.1 °F 33.6 °F 30.05 in SW 10.0 mph 14.0 mph 69% 0.00 in 39.00 W/m2
11:05 43.1 °F 33.3 °F 30.05 in SW 6.0 mph 12.0 mph 68% 0.00 in 39.00 W/m2
11:06 43.1 °F 33.3 °F 30.05 in WSW 9.0 mph 12.0 mph 68% 0.00 in 39.00 W/m2
11:07 43.2 °F 33.4 °F 30.05 in SW 7.0 mph 11.0 mph 68% 0.00 in 39.00 W/m2
11:08 43.1 °F 33.3 °F 30.05 in SW 3.0 mph 11.0 mph 68% 0.00 in 39.00 W/m2
11:10 43.2 °F 33.4 °F 30.05 in SSW 9.0 mph 11.0 mph 68% 0.00 in 83.00 W/m2
11:11 43.2 °F 33.4 °F 30.05 in SW 2.0 mph 11.0 mph 68% 0.00 in 100.00 W/m2
11:12 43.3 °F 33.5 °F 30.05 in SW 6.0 mph 10.0 mph 68% 0.00 in 116.00 W/m2
11:13 43.3 °F 33.5 °F 30.05 in SSW 4.0 mph 10.0 mph 68% 0.00 in 114.00 W/m2
11:15 43.7 °F 33.8 °F 30.05 in SW 10.0 mph 11.0 mph 68% 0.00 in 86.00 W/m2
11:17 43.9 °F 33.3 °F 30.05 in SW 6.0 mph 11.0 mph 66% 0.00 in 434.00 W/m2
11:18 43.9 °F 33.7 °F 30.05 in SSW 5.0 mph 11.0 mph 67% 0.00 in 434.00 W/m2
11:20 44.1 °F 33.9 °F 30.05 in South 10.0 mph 10.0 mph 67% 0.00 in 438.00 W/m2
11:23 44.6 °F 34.0 °F 30.05 in South 4.0 mph 7.0 mph 66% 0.00 in 264.00 W/m2
11:24 44.6 °F 34.0 °F 30.05 in South 3.0 mph 7.0 mph 66% 0.00 in 264.00 W/m2
11:25 44.8 °F 34.2 °F 30.05 in SW 4.0 mph 7.0 mph 66% 0.00 in 439.00 W/m2
11:27 44.9 °F 34.6 °F 30.05 in SW 3.0 mph 5.0 mph 67% 0.00 in 457.00 W/m2
11:28 45.1 °F 34.4 °F 30.05 in SSW 5.0 mph 7.0 mph 66% 0.00 in 457.00 W/m2
11:29 45.1 °F 34.4 °F 30.04 in SSW 3.0 mph 7.0 mph 66% 0.00 in 459.00 W/m2
11:30 45.3 °F 34.6 °F 30.04 in SW 7.0 mph 7.0 mph 66% 0.00 in 459.00 W/m2
11:34 45.2 °F 34.2 °F 30.04 in SW 7.0 mph 10.0 mph 65% 0.00 in 461.00 W/m2
11:35 45.2 °F 34.2 °F 30.04 in SW 6.0 mph 10.0 mph 65% 0.00 in 461.00 W/m2
11:36 45.1 °F 34.0 °F 30.04 in SW 7.0 mph 9.0 mph 65% 0.00 in 462.00 W/m2
11:39 45.1 °F 34.0 °F 30.04 in SW 14.0 mph 14.0 mph 65% 0.00 in 464.00 W/m2
11:40 45.1 °F 33.7 °F 30.04 in South 11.0 mph 14.0 mph 64% 0.00 in 466.00 W/m2
11:41 45.2 °F 33.8 °F 30.04 in SSE 6.0 mph 12.0 mph 64% 0.00 in 466.00 W/m2
11:44 45.2 °F 33.8 °F 30.03 in SSE 4.0 mph 9.0 mph 64% 0.00 in 468.00 W/m2
11:45 45.4 °F 34.0 °F 30.03 in South 2.0 mph 7.0 mph 64% 0.00 in 464.00 W/m2
11:46 45.4 °F 34.0 °F 30.03 in South 4.0 mph 7.0 mph 64% 0.00 in 464.00 W/m2
11:49 46.3 °F 34.8 °F 30.03 in SW 8.0 mph 10.0 mph 64% 0.00 in 469.00 W/m2
11:50 46.3 °F 34.4 °F 30.03 in WSW 4.0 mph 10.0 mph 63% 0.00 in 469.00 W/m2
11:51 46.3 °F 34.4 °F 30.03 in SW 11.0 mph 11.0 mph 63% 0.00 in 457.00 W/m2
11:52 46.3 °F 34.4 °F 30.03 in SSW 7.0 mph 11.0 mph 63% 0.00 in 459.00 W/m2
11:55 46.1 °F 34.6 °F 30.02 in WSW 10.0 mph 12.0 mph 64% 0.00 in 443.00 W/m2
11:56 46.1 °F 34.6 °F 30.02 in SW 5.0 mph 12.0 mph 64% 0.00 in 448.00 W/m2
11:58 46.1 °F 34.6 °F 30.02 in SW 4.0 mph 6.0 mph 64% 0.00 in 469.00 W/m2
12:00 46.3 °F 34.8 °F 30.02 in SSW 5.0 mph 6.0 mph 64% 0.00 in 469.00 W/m2
12:01 46.3 °F 34.8 °F 30.02 in South 6.0 mph 9.0 mph 64% 0.00 in 471.00 W/m2
12:02 46.3 °F 34.0 °F 30.02 in South 7.0 mph 10.0 mph 62% 0.00 in 471.00 W/m2
12:03 46.3 °F 34.4 °F 30.02 in SSW 2.0 mph 12.0 mph 63% 0.00 in 471.00 W/m2
12:05 46.6 °F 34.7 °F 30.02 in WSW 6.0 mph 10.0 mph 63% 0.00 in 471.00 W/m2
12:07 46.7 °F 34.8 °F 30.02 in SSW 11.0 mph 13.0 mph 63% 0.00 in 471.00 W/m2
12:08 46.7 °F 34.4 °F 30.02 in South 6.0 mph 10.0 mph 62% 0.00 in 461.00 W/m2
12:11 46.7 °F 34.8 °F 30.01 in SW 9.0 mph 11.0 mph 63% 0.00 in 452.00 W/m2
12:12 46.8 °F 34.5 °F 30.01 in WSW 6.0 mph 11.0 mph 62% 0.00 in 469.00 W/m2
12:13 46.8 °F 34.5 °F 30.01 in SW 4.0 mph 10.0 mph 62% 0.00 in 469.00 W/m2
12:14 46.8 °F 34.5 °F 30.01 in West 12.0 mph 12.0 mph 62% 0.00 in 471.00 W/m2
12:16 46.7 °F 34.4 °F 30.01 in SW 11.0 mph 11.0 mph 62% 0.00 in 452.00 W/m2
12:18 46.7 °F 34.4 °F 30.01 in WSW 10.0 mph 13.0 mph 62% 0.00 in 413.00 W/m2
12:20 46.8 °F 34.5 °F 30.01 in SW 5.0 mph 11.0 mph 62% 0.00 in 469.00 W/m2
12:23 47.2 °F 34.5 °F 30.00 in SSW 11.0 mph 13.0 mph 61% 0.00 in 332.00 W/m2
12:24 47.2 °F 34.5 °F 30.00 in South 7.0 mph 11.0 mph 61% 0.00 in 315.00 W/m2
12:25 47.2 °F 34.0 °F 30.00 in WSW 10.0 mph 13.0 mph 60% 0.00 in 466.00 W/m2
12:28 47.4 °F 34.2 °F 30.00 in WSW 6.0 mph 11.0 mph 60% 0.00 in 443.00 W/m2
12:29 47.4 °F 34.2 °F 30.00 in SW 6.0 mph 9.0 mph 60% 0.00 in 441.00 W/m2
12:31 47.4 °F 34.2 °F 30.00 in SW 6.0 mph 12.0 mph 60% 0.00 in 454.00 W/m2
12:32 47.5 °F 34.3 °F 30.00 in SSW 10.0 mph 12.0 mph 60% 0.00 in 454.00 W/m2
12:33 47.5 °F 33.9 °F 30.00 in SW 10.0 mph 12.0 mph 59% 0.00 in 462.00 W/m2
12:34 47.6 °F 34.8 °F 30.00 in SSW 5.0 mph 10.0 mph 61% 0.00 in 406.00 W/m2
12:37 47.8 °F 34.2 °F 30.00 in South 6.0 mph 11.0 mph 59% 0.00 in 290.00 W/m2
12:38 48.0 °F 34.4 °F 30.00 in South 11.0 mph 12.0 mph 59% 0.00 in 330.00 W/m2
12:39 48.1 °F 34.9 °F 30.00 in SSW 4.0 mph 12.0 mph 60% 0.00 in 397.00 W/m2
12:40 48.2 °F 34.6 °F 30.00 in SSW 7.0 mph 8.0 mph 59% 0.00 in 396.00 W/m2
12:43 48.3 °F 35.1 °F 29.99 in SSW 5.0 mph 6.0 mph 60% 0.00 in 371.00 W/m2
12:44 48.3 °F 34.7 °F 29.99 in SSW 4.0 mph 6.0 mph 59% 0.00 in 399.00 W/m2
12:45 48.4 °F 34.8 °F 29.99 in South 4.0 mph 7.0 mph 59% 0.00 in 346.00 W/m2
12:46 48.5 °F 35.3 °F 29.99 in South 5.0 mph 9.0 mph 60% 0.00 in 364.00 W/m2
12:49 48.7 °F 35.0 °F 29.99 in SSW 4.0 mph 6.0 mph 59% 0.00 in 285.00 W/m2
12:50 48.9 °F 35.6 °F 29.99 in South 4.0 mph 8.0 mph 60% 0.00 in 204.00 W/m2
12:51 49.0 °F 35.3 °F 29.98 in SSW 4.0 mph 7.0 mph 59% 0.00 in 204.00 W/m2
12:54 49.4 °F 36.1 °F 29.98 in SSW 6.0 mph 7.0 mph 60% 0.00 in 378.00 W/m2
12:55 49.5 °F 35.8 °F 29.98 in SW 6.0 mph 7.0 mph 59% 0.00 in 357.00 W/m2
12:57 49.5 °F 35.3 °F 29.98 in SSW 4.0 mph 7.0 mph 58% 0.00 in 387.00 W/m2
12:59 49.6 °F 35.5 °F 29.98 in SSW 4.0 mph 5.0 mph 58% 0.00 in 364.00 W/m2
13:00 49.6 °F 35.5 °F 29.98 in SSW 2.0 mph 5.0 mph 58% 0.00 in 364.00 W/m2
13:02 49.6 °F 35.5 °F 29.98 in SW 3.0 mph 6.0 mph 58% 0.00 in 271.00 W/m2
13:05 49.7 °F 35.1 °F 29.98 in SW 5.0 mph 7.0 mph 57% 0.00 in 185.00 W/m2
13:06 49.7 °F 35.5 °F 29.98 in SW 1.0 mph 5.0 mph 58% 0.00 in 114.00 W/m2
13:08 49.7 °F 35.5 °F 29.98 in SSW 5.0 mph 10.0 mph 58% 0.00 in 98.00 W/m2
13:10 49.8 °F 35.2 °F 29.98 in WSW 6.0 mph 8.0 mph 57% 0.00 in 142.00 W/m2
13:11 49.8 °F 35.2 °F 29.98 in SW 5.0 mph 8.0 mph 57% 0.00 in 186.00 W/m2
13:13 49.7 °F 35.1 °F 29.97 in SW 6.0 mph 7.0 mph 57% 0.00 in 239.00 W/m2
13:14 49.7 °F 35.1 °F 29.98 in SW 8.0 mph 8.0 mph 57% 0.00 in 209.00 W/m2
13:15 49.8 °F 35.2 °F 29.97 in SW 5.0 mph 8.0 mph 57% 0.00 in 276.00 W/m2
13:16 49.8 °F 35.2 °F 29.97 in SW 6.0 mph 8.0 mph 57% 0.00 in 172.00 W/m2
13:18 49.9 °F 35.3 °F 29.97 in SW 4.0 mph 11.0 mph 57% 0.00 in 162.00 W/m2
13:19 49.9 °F 35.3 °F 29.97 in WSW 7.0 mph 9.0 mph 57% 0.00 in 123.00 W/m2
13:20 50.0 °F 35.4 °F 29.97 in WSW 6.0 mph 9.0 mph 57% 0.00 in 93.00 W/m2
13:21 50.0 °F 35.4 °F 29.97 in SSW 4.0 mph 10.0 mph 57% 0.00 in 193.00 W/m2
13:23 50.0 °F 34.9 °F 29.97 in SW 5.0 mph 7.0 mph 56% 0.00 in 227.00 W/m2
13:25 50.1 °F 35.0 °F 29.97 in SW 10.0 mph 10.0 mph 56% 0.00 in 70.00 W/m2
13:27 50.2 °F 35.1 °F 29.97 in WSW 11.0 mph 11.0 mph 56% 0.00 in 54.00 W/m2
13:29 50.2 °F 35.1 °F 29.97 in SW 5.0 mph 10.0 mph 56% 0.00 in 111.00 W/m2
13:30 50.3 °F 35.2 °F 29.97 in SSW 4.0 mph 11.0 mph 56% 0.00 in 67.00 W/m2
13:32 50.3 °F 34.8 °F 29.97 in SW 3.0 mph 6.0 mph 55% 0.00 in 236.00 W/m2
13:34 50.4 °F 35.3 °F 29.97 in SSW 6.0 mph 7.0 mph 56% 0.00 in 274.00 W/m2
13:35 50.5 °F 35.4 °F 29.97 in SSW 6.0 mph 10.0 mph 56% 0.00 in 186.00 W/m2
13:36 50.6 °F 35.5 °F 29.96 in South 7.0 mph 10.0 mph 56% 0.00 in 272.00 W/m2
13:37 50.6 °F 35.0 °F 29.97 in SSW 5.0 mph 10.0 mph 55% 0.00 in 272.00 W/m2
13:40 50.7 °F 35.1 °F 29.96 in SW 4.0 mph 12.0 mph 55% 0.00 in 90.00 W/m2
13:42 50.8 °F 35.2 °F 29.97 in SW 5.0 mph 10.0 mph 55% 0.00 in 63.00 W/m2
13:44 50.9 °F 35.3 °F 29.96 in SW 6.0 mph 9.0 mph 55% 0.00 in 283.00 W/m2
13:46 51.0 °F 35.4 °F 29.96 in WSW 5.0 mph 9.0 mph 55% 0.00 in 239.00 W/m2
13:47 51.0 °F 35.4 °F 29.96 in WSW 4.0 mph 8.0 mph 55% 0.00 in 325.00 W/m2
13:48 50.9 °F 34.9 °F 29.96 in WSW 8.0 mph 11.0 mph 54% 0.00 in 309.00 W/m2
13:50 51.0 °F 35.4 °F 29.96 in SW 5.0 mph 10.0 mph 55% 0.00 in 160.00 W/m2
13:51 51.0 °F 35.4 °F 29.96 in WSW 7.0 mph 9.0 mph 55% 0.00 in 232.00 W/m2
13:52 51.0 °F 35.4 °F 29.96 in SW 6.0 mph 9.0 mph 55% 0.00 in 232.00 W/m2
13:53 51.1 °F 35.5 °F 29.96 in SSW 10.0 mph 12.0 mph 55% 0.00 in 243.00 W/m2
13:55 51.1 °F 35.0 °F 29.96 in WSW 10.0 mph 12.0 mph 54% 0.00 in 47.00 W/m2
13:57 51.1 °F 35.0 °F 29.96 in WSW 12.0 mph 12.0 mph 54% 0.00 in 91.00 W/m2
13:58 51.0 °F 35.0 °F 29.96 in SW 6.0 mph 12.0 mph 54% 0.00 in 97.00 W/m2
14:00 51.0 °F 35.0 °F 29.96 in South 4.0 mph 6.0 mph 54% 0.00 in 137.00 W/m2
14:02 51.2 °F 35.6 °F 29.96 in WSW 7.0 mph 12.0 mph 55% 0.00 in 237.00 W/m2
14:04 51.3 °F 35.2 °F 29.96 in WSW 6.0 mph 10.0 mph 54% 0.00 in 225.00 W/m2
14:05 51.2 °F 35.1 °F 29.96 in WSW 10.0 mph 13.0 mph 54% 0.00 in 91.00 W/m2
14:07 51.2 °F 35.1 °F 29.96 in WSW 12.0 mph 12.0 mph 54% 0.00 in 192.00 W/m2
14:08 51.2 °F 35.1 °F 29.96 in WSW 11.0 mph 12.0 mph 54% 0.00 in 199.00 W/m2
14:09 51.2 °F 35.1 °F 29.96 in SSW 6.0 mph 12.0 mph 54% 0.00 in 202.00 W/m2
14:11 51.2 °F 35.1 °F 29.95 in SW 6.0 mph 11.0 mph 54% 0.00 in 185.00 W/m2
14:12 51.3 °F 35.2 °F 29.95 in WSW 10.0 mph 11.0 mph 54% 0.00 in 227.00 W/m2
14:13 51.3 °F 35.2 °F 29.96 in WSW 6.0 mph 11.0 mph 54% 0.00 in 251.00 W/m2
14:14 51.3 °F 35.2 °F 29.96 in SW 9.0 mph 10.0 mph 54% 0.00 in 209.00 W/m2
14:15 51.4 °F 35.3 °F 29.96 in WSW 6.0 mph 11.0 mph 54% 0.00 in 202.00 W/m2
14:16 51.4 °F 35.3 °F 29.95 in WSW 5.0 mph 11.0 mph 54% 0.00 in 241.00 W/m2
14:17 51.4 °F 35.3 °F 29.96 in SW 4.0 mph 7.0 mph 54% 0.00 in 278.00 W/m2
14:19 51.5 °F 35.4 °F 29.96 in SSW 7.0 mph 9.0 mph 54% 0.00 in 292.00 W/m2
14:20 51.7 °F 35.6 °F 29.95 in SSW 5.0 mph 7.0 mph 54% 0.00 in 271.00 W/m2
14:21 51.7 °F 35.6 °F 29.95 in SW 5.0 mph 7.0 mph 54% 0.00 in 241.00 W/m2
14:23 51.8 °F 35.7 °F 29.95 in WSW 5.0 mph 7.0 mph 54% 0.00 in 258.00 W/m2
14:24 51.8 °F 35.7 °F 29.95 in SW 6.0 mph 9.0 mph 54% 0.00 in 290.00 W/m2
14:25 51.8 °F 35.2 °F 29.95 in WSW 10.0 mph 12.0 mph 53% 0.00 in 278.00 W/m2
14:27 51.8 °F 35.2 °F 29.95 in SW 6.0 mph 10.0 mph 53% 0.00 in 297.00 W/m2
14:28 51.9 °F 35.8 °F 29.95 in SW 2.0 mph 7.0 mph 54% 0.00 in 313.00 W/m2
14:29 51.9 °F 35.8 °F 29.95 in SSW 3.0 mph 6.0 mph 54% 0.00 in 309.00 W/m2
14:30 52.1 °F 36.0 °F 29.95 in South 2.0 mph 7.0 mph 54% 0.00 in 308.00 W/m2
14:32 52.2 °F 36.1 °F 29.95 in SSW 4.0 mph 5.0 mph 54% 0.00 in 304.00 W/m2
14:34 52.3 °F 36.2 °F 29.95 in SSW 4.0 mph 8.0 mph 54% 0.00 in 301.00 W/m2
14:35 52.4 °F 36.3 °F 29.95 in SSW 4.0 mph 8.0 mph 54% 0.00 in 299.00 W/m2
14:37 52.7 °F 36.1 °F 29.95 in SW 3.0 mph 5.0 mph 53% 0.00 in 290.00 W/m2
14:39 52.7 °F 36.1 °F 29.95 in WSW 6.0 mph 10.0 mph 53% 0.00 in 288.00 W/m2
14:40 52.8 °F 36.2 °F 29.95 in SW 5.0 mph 10.0 mph 53% 0.00 in 285.00 W/m2
14:41 52.6 °F 35.5 °F 29.95 in SW 3.0 mph 7.0 mph 52% 0.00 in 264.00 W/m2
14:43 52.7 °F 36.1 °F 29.95 in SSW 4.0 mph 7.0 mph 53% 0.00 in 220.00 W/m2
14:44 52.7 °F 36.1 °F 29.95 in SSW 4.0 mph 6.0 mph 53% 0.00 in 225.00 W/m2
14:45 52.7 °F 35.1 °F 29.95 in SSW 5.0 mph 6.0 mph 51% 0.00 in 186.00 W/m2
14:46 52.6 °F 35.5 °F 29.95 in SSW 3.0 mph 6.0 mph 52% 0.00 in 178.00 W/m2
14:48 52.6 °F 36.0 °F 29.95 in SW 5.0 mph 10.0 mph 53% 0.00 in 221.00 W/m2
14:49 52.6 °F 36.0 °F 29.95 in WSW 7.0 mph 9.0 mph 53% 0.00 in 216.00 W/m2
14:50 52.6 °F 35.5 °F 29.95 in WSW 7.0 mph 9.0 mph 52% 0.00 in 207.00 W/m2
14:51 52.5 °F 35.4 °F 29.95 in SW 7.0 mph 9.0 mph 52% 0.00 in 204.00 W/m2
14:52 52.5 °F 35.4 °F 29.95 in WSW 5.0 mph 9.0 mph 52% 0.00 in 163.00 W/m2
14:53 52.4 °F 35.3 °F 29.95 in SW 4.0 mph 9.0 mph 52% 0.00 in 160.00 W/m2
14:54 52.4 °F 35.3 °F 29.95 in SSW 5.0 mph 7.0 mph 52% 0.00 in 214.00 W/m2
14:55 52.4 °F 35.3 °F 29.95 in SSW 4.0 mph 7.0 mph 52% 0.00 in 214.00 W/m2
14:57 52.5 °F 35.4 °F 29.95 in SSW 5.0 mph 9.0 mph 52% 0.00 in 197.00 W/m2
14:58 52.4 °F 35.3 °F 29.95 in South 9.0 mph 9.0 mph 52% 0.00 in 165.00 W/m2
14:59 52.3 °F 35.2 °F 29.95 in South 4.0 mph 9.0 mph 52% 0.00 in 165.00 W/m2
15:00 52.3 °F 35.2 °F 29.95 in South 6.0 mph 9.0 mph 52% 0.00 in 146.00 W/m2
15:02 52.2 °F 35.1 °F 29.95 in SW 3.0 mph 7.0 mph 52% 0.00 in 113.00 W/m2
15:03 52.2 °F 35.1 °F 29.95 in SW 4.0 mph 7.0 mph 52% 0.00 in 120.00 W/m2
15:04 52.2 °F 35.1 °F 29.95 in South 6.0 mph 6.0 mph 52% 0.00 in 132.00 W/m2
15:05 52.2 °F 35.1 °F 29.95 in South 3.0 mph 6.0 mph 52% 0.00 in 146.00 W/m2
15:08 52.2 °F 35.1 °F 29.95 in SW 5.0 mph 6.0 mph 52% 0.00 in 120.00 W/m2
15:10 52.1 °F 35.0 °F 29.95 in SW 5.0 mph 5.0 mph 52% 0.00 in 118.00 W/m2
15:13 51.9 °F 34.8 °F 29.95 in SSW 5.0 mph 11.0 mph 52% 0.00 in 42.00 W/m2
15:14 51.9 °F 34.8 °F 29.95 in SSW 5.0 mph 9.0 mph 52% 0.00 in 30.00 W/m2
15:15 51.7 °F 34.7 °F 29.95 in SW 4.0 mph 6.0 mph 52% 0.00 in 32.00 W/m2
15:16 51.7 °F 34.7 °F 29.95 in SW 5.0 mph 5.0 mph 52% 0.00 in 37.00 W/m2
15:19 51.4 °F 34.9 °F 29.95 in South 4.0 mph 7.0 mph 53% 0.00 in 42.00 W/m2
15:20 51.4 °F 34.9 °F 29.95 in WSW 7.0 mph 9.0 mph 53% 0.00 in 44.00 W/m2
15:21 51.4 °F 34.9 °F 29.95 in SSW 7.0 mph 9.0 mph 53% 0.00 in 53.00 W/m2
15:24 51.3 °F 34.8 °F 29.95 in SW 4.0 mph 8.0 mph 53% 0.00 in 63.00 W/m2
15:26 51.2 °F 35.1 °F 29.95 in SW 4.0 mph 10.0 mph 54% 0.00 in 72.00 W/m2
15:31 51.0 °F 35.0 °F 29.95 in SW 4.0 mph 5.0 mph 54% 0.00 in 77.00 W/m2
15:32 51.0 °F 35.0 °F 29.95 in SW 5.0 mph 6.0 mph 54% 0.00 in 69.00 W/m2
15:36 50.8 °F 34.8 °F 29.95 in SSW 3.0 mph 6.0 mph 54% 0.00 in 40.00 W/m2
15:37 50.9 °F 34.9 °F 29.95 in SSW 2.0 mph 6.0 mph 54% 0.00 in 40.00 W/m2
15:40 50.8 °F 35.2 °F 29.95 in SSW 3.0 mph 5.0 mph 55% 0.00 in 33.00 W/m2
15:41 50.8 °F 35.2 °F 29.95 in SSW 4.0 mph 6.0 mph 55% 0.00 in 30.00 W/m2
15:42 50.8 °F 35.2 °F 29.95 in SSW 3.0 mph 6.0 mph 55% 0.00 in 30.00 W/m2
15:45 50.7 °F 35.1 °F 29.95 in SSW 4.0 mph 9.0 mph 55% 0.00 in 33.00 W/m2
15:47 50.6 °F 35.0 °F 29.95 in SSW 5.0 mph 6.0 mph 55% 0.00 in 33.00 W/m2
15:51 50.6 °F 35.0 °F 29.96 in SW 1.0 mph 2.0 mph 55% 0.00 in 28.00 W/m2
15:52 50.5 °F 35.0 °F 29.96 in SW 1.0 mph 2.0 mph 55% 0.00 in 32.00 W/m2
15:55 50.5 °F 35.4 °F 29.96 in SW 4.0 mph 4.0 mph 56% 0.00 in 33.00 W/m2
15:56 50.4 °F 35.3 °F 29.95 in SW 2.0 mph 7.0 mph 56% 0.00 in 32.00 W/m2
15:57 50.4 °F 35.3 °F 29.96 in SW 2.0 mph 7.0 mph 56% 0.00 in 28.00 W/m2
16:00 50.3 °F 35.2 °F 29.96 in SW 3.0 mph 4.0 mph 56% 0.00 in 40.00 W/m2
16:02 50.2 °F 35.1 °F 29.96 in SW 3.0 mph 5.0 mph 56% 0.00 in 28.00 W/m2
16:06 50.0 °F 34.9 °F 29.95 in SW 3.0 mph 4.0 mph 56% 0.00 in 19.00 W/m2
16:07 49.9 °F 35.3 °F 29.95 in SW 4.0 mph 5.0 mph 57% 0.00 in 19.00 W/m2
16:08 49.9 °F 35.3 °F 29.95 in SW 1.0 mph 5.0 mph 57% 0.00 in 19.00 W/m2
16:11 49.7 °F 35.1 °F 29.95 in SW 4.0 mph 4.0 mph 57% 0.00 in 18.00 W/m2
16:13 49.6 °F 35.0 °F 29.95 in SW 1.0 mph 4.0 mph 57% 0.00 in 16.00 W/m2
16:14 49.5 °F 35.3 °F 29.95 in SW 4.0 mph 5.0 mph 58% 0.00 in 16.00 W/m2
16:17 49.3 °F 35.2 °F 29.95 in SW 1.0 mph 6.0 mph 58% 0.00 in 14.00 W/m2
16:18 49.2 °F 35.1 °F 29.95 in SW 2.0 mph 3.0 mph 58% 0.00 in 14.00 W/m2
16:19 49.2 °F 35.1 °F 29.95 in SW 1.0 mph 3.0 mph 58% 0.00 in 14.00 W/m2
16:23 48.8 °F 34.7 °F 29.95 in Calm   4.0 mph 58% 0.00 in 12.00 W/m2
16:24 48.7 °F 35.0 °F 29.95 in SW 1.0 mph 3.0 mph 59% 0.00 in 12.00 W/m2
16:28 48.4 °F 34.8 °F 29.95 in Calm   3.0 mph 59% 0.00 in 11.00 W/m2
16:29 48.3 °F 34.7 °F 29.95 in SW 2.0 mph 2.0 mph 59% 0.00 in 9.00 W/m2
16:30 48.3 °F 34.7 °F 29.95 in SW 1.0 mph 3.0 mph 59% 0.00 in 9.00 W/m2
16:31 48.3 °F 34.7 °F 29.95 in SW 2.0 mph 3.0 mph 59% 0.00 in 9.00 W/m2
16:33 48.1 °F 34.5 °F 29.95 in SW 1.0 mph 3.0 mph 59% 0.00 in 7.00 W/m2
16:34 48.0 °F 34.4 °F 29.95 in Calm   3.0 mph 59% 0.00 in 7.00 W/m2
16:35 47.9 °F 34.3 °F 29.95 in Calm   3.0 mph 59% 0.00 in 7.00 W/m2
16:37 47.7 °F 34.1 °F 29.95 in Calm   2.0 mph 59% 0.00 in 5.00 W/m2
16:38 47.7 °F 34.1 °F 29.94 in Calm     59% 0.00 in 5.00 W/m2
16:39 47.6 °F 34.4 °F 29.94 in Calm   2.0 mph 60% 0.00 in 5.00 W/m2
16:40 47.5 °F 34.3 °F 29.95 in SW 1.0 mph 2.0 mph 60% 0.00 in 5.00 W/m2
16:43 47.3 °F 34.1 °F 29.95 in SW 2.0 mph 3.0 mph 60% 0.00 in 0.00 W/m2
16:44 47.2 °F 34.0 °F 29.95 in SW 1.0 mph 3.0 mph 60% 0.00 in 0.00 W/m2
16:47 46.9 °F 34.2 °F 29.95 in Calm   3.0 mph 61% 0.00 in 0.00 W/m2
16:49 46.8 °F 34.1 °F 29.95 in Calm   1.0 mph 61% 0.00 in 0.00 W/m2
16:54 46.3 °F 33.6 °F 29.95 in SW 2.0 mph 3.0 mph 61% 0.00 in 0.00 W/m2
16:59 45.8 °F 33.5 °F 29.95 in SW 1.0 mph 2.0 mph 62% 0.00 in 0.00 W/m2
17:00 45.7 °F 33.4 °F 29.95 in Calm   2.0 mph 62% 0.00 in 0.00 W/m2
17:04 45.3 °F 33.5 °F 29.95 in Calm   1.0 mph 63% 0.00 in 0.00 W/m2
17:05 45.1 °F 33.3 °F 29.95 in Calm     63% 0.00 in 0.00 W/m2
17:06 45.0 °F 33.2 °F 29.95 in Calm     63% 0.00 in 0.00 W/m2
17:09 44.6 °F 32.8 °F 29.95 in Calm     63% 0.00 in 0.00 W/m2
17:10 44.5 °F 32.7 °F 29.95 in Calm     63% 0.00 in 0.00 W/m2
17:11 44.4 °F 33.0 °F 29.95 in Calm     64% 0.00 in 0.00 W/m2
17:14 44.0 °F 32.6 °F 29.95 in Calm     64% 0.00 in 0.00 W/m2
17:16 43.8 °F 32.8 °F 29.95 in Calm     65% 0.00 in 0.00 W/m2
17:18 43.5 °F 32.5 °F 29.95 in Calm     65% 0.00 in 0.00 W/m2
17:19 43.3 °F 32.7 °F 29.95 in Calm     66% 0.00 in 0.00 W/m2
17:21 43.1 °F 32.5 °F 29.95 in Calm     66% 0.00 in 0.00 W/m2
17:23 42.8 °F 32.6 °F 29.95 in Calm     67% 0.00 in 0.00 W/m2
17:24 42.7 °F 32.5 °F 29.94 in Calm     67% 0.00 in 0.00 W/m2
17:25 42.6 °F 32.4 °F 29.94 in Calm     67% 0.00 in 0.00 W/m2
17:26 42.5 °F 32.3 °F 29.94 in Calm     67% 0.00 in 0.00 W/m2
17:29 42.0 °F 32.2 °F 29.94 in Calm   2.0 mph 68% 0.00 in 0.00 W/m2
17:30 41.9 °F 32.1 °F 29.94 in Calm   1.0 mph 68% 0.00 in 0.00 W/m2
17:31 41.7 °F 32.3 °F 29.94 in SW 1.0 mph 1.0 mph 69% 0.00 in 0.00 W/m2
17:32 41.6 °F 32.2 °F 29.94 in SW 1.0 mph 1.0 mph 69% 0.00 in 0.00 W/m2
17:35 41.3 °F 32.3 °F 29.94 in Calm   1.0 mph 70% 0.00 in 0.00 W/m2
17:36 41.1 °F 32.1 °F 29.94 in Calm   1.0 mph 70% 0.00 in 0.00 W/m2
17:37 41.1 °F 32.1 °F 29.94 in Calm   1.0 mph 70% 0.00 in 0.00 W/m2
17:40 40.7 °F 32.0 °F 29.94 in SW 1.0 mph 1.0 mph 71% 0.00 in 0.00 W/m2
17:41 40.6 °F 32.0 °F 29.94 in SW 1.0 mph 1.0 mph 71% 0.00 in 0.00 W/m2
17:42 40.5 °F 31.9 °F 29.94 in SW 2.0 mph 2.0 mph 71% 0.00 in 0.00 W/m2
17:43 40.4 °F 32.1 °F 29.94 in SW 1.0 mph 2.0 mph 72% 0.00 in 0.00 W/m2
17:45 40.2 °F 31.9 °F 29.94 in SW 1.0 mph 2.0 mph 72% 0.00 in 0.00 W/m2
17:46 40.2 °F 31.9 °F 29.94 in SW 2.0 mph 2.0 mph 72% 0.00 in 0.00 W/m2
17:47 40.1 °F 31.8 °F 29.94 in SW 1.0 mph 2.0 mph 72% 0.00 in 0.00 W/m2
17:50 39.7 °F 31.8 °F 29.94 in Calm   1.0 mph 73% 0.00 in 0.00 W/m2
17:51 39.7 °F 31.8 °F 29.94 in Calm     73% 0.00 in 0.00 W/m2
17:52 39.7 °F 31.8 °F 29.94 in SW 1.0 mph 1.0 mph 73% 0.00 in 0.00 W/m2
17:53 39.6 °F 31.7 °F 29.94 in SW 1.0 mph 1.0 mph 73% 0.00 in 0.00 W/m2
17:56 39.5 °F 31.9 °F 29.93 in SW 2.0 mph 2.0 mph 74% 0.00 in 0.00 W/m2
17:57 39.4 °F 31.8 °F 29.93 in SW 2.0 mph 2.0 mph 74% 0.00 in 0.00 W/m2
17:58 39.2 °F 31.6 °F 29.93 in SW 2.0 mph 3.0 mph 74% 0.00 in 0.00 W/m2
18:01 39.1 °F 31.9 °F 29.93 in SW 2.0 mph 2.0 mph 75% 0.00 in 0.00 W/m2
18:02 39.0 °F 31.8 °F 29.93 in SW 2.0 mph 2.0 mph 75% 0.00 in 0.00 W/m2
18:05 38.9 °F 31.7 °F 29.93 in SW 1.0 mph 2.0 mph 75% 0.00 in 0.00 W/m2
18:06 38.9 °F 31.7 °F 29.93 in SW 1.0 mph 2.0 mph 75% 0.00 in 0.00 W/m2
18:07 38.8 °F 31.6 °F 29.93 in SW 2.0 mph 2.0 mph 75% 0.00 in 0.00 W/m2
18:08 38.9 °F 31.7 °F 29.93 in SW 1.0 mph 2.0 mph 75% 0.00 in 0.00 W/m2
18:11 38.6 °F 31.4 °F 29.93 in SW 1.0 mph 2.0 mph 75% 0.00 in 0.00 W/m2
18:12 38.5 °F 31.3 °F 29.93 in SW 2.0 mph 2.0 mph 75% 0.00 in 0.00 W/m2
18:13 38.4 °F 31.5 °F 29.93 in SW 1.0 mph 2.0 mph 76% 0.00 in 0.00 W/m2
18:16 38.3 °F 31.4 °F 29.93 in Calm   2.0 mph 76% 0.00 in 0.00 W/m2
18:17 38.3 °F 31.4 °F 29.93 in SW 2.0 mph 2.0 mph 76% 0.00 in 0.00 W/m2
18:19 38.2 °F 31.6 °F 29.93 in SW 2.0 mph 2.0 mph 77% 0.00 in 0.00 W/m2
18:21 38.3 °F 31.7 °F 29.93 in Calm   2.0 mph 77% 0.00 in 0.00 W/m2
18:23 38.3 °F 31.7 °F 29.93 in SW 1.0 mph 1.0 mph 77% 0.00 in 0.00 W/m2
18:24 38.2 °F 31.3 °F 29.93 in Calm   1.0 mph 76% 0.00 in 0.00 W/m2
18:26 38.0 °F 31.1 °F 29.93 in SW 2.0 mph 2.0 mph 76% 0.00 in 0.00 W/m2
18:28 38.1 °F 31.9 °F 29.93 in SW 2.0 mph 3.0 mph 78% 0.00 in 0.00 W/m2
18:29 38.1 °F 31.9 °F 29.93 in SW 1.0 mph 3.0 mph 78% 0.00 in 0.00 W/m2
18:33 38.2 °F 32.0 °F 29.93 in SW 1.0 mph 3.0 mph 78% 0.00 in 0.00 W/m2
18:34 38.1 °F 31.9 °F 29.93 in SW 3.0 mph 3.0 mph 78% 0.00 in 0.00 W/m2
18:36 38.1 °F 31.9 °F 29.93 in SW 1.0 mph 2.0 mph 78% 0.00 in 0.00 W/m2
18:38 38.1 °F 31.5 °F 29.93 in Calm   2.0 mph 77% 0.00 in 0.00 W/m2
18:39 38.0 °F 31.4 °F 29.93 in Calm     77% 0.00 in 0.00 W/m2
18:41 37.9 °F 31.7 °F 29.93 in Calm   1.0 mph 78% 0.00 in 0.00 W/m2
18:43 37.8 °F 31.2 °F 29.93 in Calm   1.0 mph 77% 0.00 in 0.00 W/m2
18:44 37.7 °F 31.5 °F 29.93 in Calm     78% 0.00 in 0.00 W/m2
18:46 37.7 °F 31.5 °F 29.93 in Calm   2.0 mph 78% 0.00 in 0.00 W/m2
18:48 37.5 °F 31.3 °F 29.93 in SW 2.0 mph 2.0 mph 78% 0.00 in 0.00 W/m2
18:49 37.5 °F 31.3 °F 29.93 in SW 2.0 mph 2.0 mph 78% 0.00 in 0.00 W/m2
18:50 37.4 °F 31.2 °F 29.93 in Calm   2.0 mph 78% 0.00 in 0.00 W/m2
18:51 37.4 °F 31.2 °F 29.93 in Calm   2.0 mph 78% 0.00 in 0.00 W/m2
18:54 37.3 °F 31.1 °F 29.93 in SW 2.0 mph 2.0 mph 78% 0.00 in 0.00 W/m2
18:55 37.2 °F 31.0 °F 29.93 in SW 1.0 mph 3.0 mph 78% 0.00 in 0.00 W/m2
18:56 37.2 °F 31.0 °F 29.93 in Calm   2.0 mph 78% 0.00 in 0.00 W/m2
18:57 37.2 °F 31.0 °F 29.93 in Calm   2.0 mph 78% 0.00 in 0.00 W/m2
18:59 37.1 °F 30.9 °F 29.92 in SW 2.0 mph 3.0 mph 78% 0.00 in 0.00 W/m2
19:02 37.0 °F 30.8 °F 29.92 in SW 1.0 mph 2.0 mph 78% 0.00 in 0.00 W/m2
19:04 36.8 °F 30.9 °F 29.92 in SW 3.0 mph 3.0 mph 79% 0.00 in 0.00 W/m2
19:05 36.8 °F 30.9 °F 29.92 in SW 1.0 mph 3.0 mph 79% 0.00 in 0.00 W/m2
19:07 36.7 °F 30.8 °F 29.92 in SW 2.0 mph 2.0 mph 79% 0.00 in 0.00 W/m2
19:09 36.6 °F 30.7 °F 29.92 in SW 1.0 mph 3.0 mph 79% 0.00 in 0.00 W/m2
19:10 36.6 °F 30.7 °F 29.92 in SW 2.0 mph 3.0 mph 79% 0.00 in 0.00 W/m2
19:12 36.5 °F 30.6 °F 29.92 in SW 1.0 mph 3.0 mph 79% 0.00 in 0.00 W/m2
19:14 36.4 °F 30.5 °F 29.92 in SW 2.0 mph 4.0 mph 79% 0.00 in 0.00 W/m2
19:15 36.4 °F 30.5 °F 29.92 in SW 2.0 mph 4.0 mph 79% 0.00 in 0.00 W/m2
19:17 36.2 °F 30.3 °F 29.92 in SW 1.0 mph 3.0 mph 79% 0.00 in 0.00 W/m2
19:20 36.1 °F 30.5 °F 29.92 in SW 2.0 mph 4.0 mph 80% 0.00 in 0.00 W/m2
19:22 36.1 °F 30.5 °F 29.92 in SW 3.0 mph 4.0 mph 80% 0.00 in 0.00 W/m2
19:23 36.0 °F 30.4 °F 29.92 in SW 2.0 mph 5.0 mph 80% 0.00 in 0.00 W/m2
19:25 36.0 °F 30.4 °F 29.92 in SW 3.0 mph 3.0 mph 80% 0.00 in 0.00 W/m2
19:27 36.0 °F 30.4 °F 29.92 in SSW 3.0 mph 5.0 mph 80% 0.00 in 0.00 W/m2
19:28 36.0 °F 30.4 °F 29.92 in SSW 3.0 mph 5.0 mph 80% 0.00 in 0.00 W/m2
19:29 36.0 °F 30.4 °F 29.92 in SSW 2.0 mph 5.0 mph 80% 0.00 in 0.00 W/m2
19:30 35.9 °F 30.3 °F 29.92 in SSW 3.0 mph 4.0 mph 80% 0.00 in 0.00 W/m2
19:33 35.9 °F 30.3 °F 29.92 in SSW 6.0 mph 6.0 mph 80% 0.00 in 0.00 W/m2
19:34 35.9 °F 30.3 °F 29.92 in South 3.0 mph 6.0 mph 80% 0.00 in 0.00 W/m2
19:35 35.9 °F 30.3 °F 29.92 in South 3.0 mph 5.0 mph 80% 0.00 in 0.00 W/m2
19:38 35.9 °F 30.3 °F 29.92 in South 3.0 mph 5.0 mph 80% 0.00 in 0.00 W/m2
19:39 35.9 °F 30.3 °F 29.91 in South 2.0 mph 4.0 mph 80% 0.00 in 0.00 W/m2
19:40 35.9 °F 30.3 °F 29.91 in South 2.0 mph 4.0 mph 80% 0.00 in 0.00 W/m2
19:43 35.8 °F 30.2 °F 29.91 in South 3.0 mph 3.0 mph 80% 0.00 in 0.00 W/m2
19:45 35.8 °F 30.2 °F 29.92 in South 2.0 mph 4.0 mph 80% 0.00 in 0.00 W/m2
19:49 35.8 °F 30.2 °F 29.91 in South 1.0 mph 4.0 mph 80% 0.00 in 0.00 W/m2
19:50 35.8 °F 30.2 °F 29.91 in South 3.0 mph 5.0 mph 80% 0.00 in 0.00 W/m2
19:51 35.8 °F 30.2 °F 29.91 in South 2.0 mph 5.0 mph 80% 0.00 in 0.00 W/m2
19:54 35.8 °F 30.5 °F 29.91 in South 2.0 mph 6.0 mph 81% 0.00 in 0.00 W/m2
19:55 35.7 °F 30.5 °F 29.91 in South 2.0 mph 6.0 mph 81% 0.00 in 0.00 W/m2
19:56 35.8 °F 30.5 °F 29.91 in South 3.0 mph 4.0 mph 81% 0.00 in 0.00 W/m2
20:00 35.8 °F 30.5 °F 29.91 in South 2.0 mph 5.0 mph 81% 0.00 in 0.00 W/m2
20:01 35.7 °F 30.5 °F 29.91 in South 4.0 mph 5.0 mph 81% 0.00 in 0.00 W/m2
20:02 35.7 °F 30.5 °F 29.91 in South 2.0 mph 6.0 mph 81% 0.00 in 0.00 W/m2
20:05 35.8 °F 30.5 °F 29.91 in South 2.0 mph 4.0 mph 81% 0.00 in 0.00 W/m2
20:06 35.8 °F 30.5 °F 29.91 in South 3.0 mph 4.0 mph 81% 0.00 in 0.00 W/m2
20:07 35.8 °F 30.5 °F 29.91 in South 2.0 mph 5.0 mph 81% 0.00 in 0.00 W/m2
20:10 36.0 °F 30.8 °F 29.90 in SSE 2.0 mph 7.0 mph 81% 0.00 in 0.00 W/m2
20:11 36.0 °F 30.8 °F 29.91 in SSE 6.0 mph 6.0 mph 81% 0.00 in 0.00 W/m2
20:13 36.1 °F 30.8 °F 29.91 in SSE 2.0 mph 6.0 mph 81% 0.00 in 0.00 W/m2
20:15 36.1 °F 30.8 °F 29.90 in SSE 2.0 mph 5.0 mph 81% 0.00 in 0.00 W/m2
20:16 36.2 °F 30.9 °F 29.90 in SSE 4.0 mph 6.0 mph 81% 0.00 in 0.00 W/m2
20:17 36.1 °F 30.8 °F 29.90 in SSE 4.0 mph 7.0 mph 81% 0.00 in 0.00 W/m2
20:18 36.1 °F 30.8 °F 29.90 in SSE 4.0 mph 7.0 mph 81% 0.00 in 0.00 W/m2
20:21 36.0 °F 30.4 °F 29.90 in SSE 2.0 mph 4.0 mph 80% 0.00 in 0.00 W/m2
20:22 36.0 °F 30.4 °F 29.90 in SSE 4.0 mph 5.0 mph 80% 0.00 in 0.00 W/m2
20:24 35.8 °F 30.2 °F 29.90 in SSE 3.0 mph 4.0 mph 80% 0.00 in 0.00 W/m2
20:26 35.7 °F 30.1 °F 29.90 in SSE 3.0 mph 4.0 mph 80% 0.00 in 0.00 W/m2
20:27 35.7 °F 30.1 °F 29.90 in SSE 3.0 mph 3.0 mph 80% 0.00 in 0.00 W/m2
20:29 35.5 °F 30.3 °F 29.90 in SSE 3.0 mph 5.0 mph 81% 0.00 in 0.00 W/m2
20:31 35.4 °F 30.2 °F 29.90 in SSE 2.0 mph 4.0 mph 81% 0.00 in 0.00 W/m2
20:32 35.4 °F 30.2 °F 29.90 in SSE 3.0 mph 4.0 mph 81% 0.00 in 0.00 W/m2
20:33 35.3 °F 30.1 °F 29.90 in SSE 2.0 mph 4.0 mph 81% 0.00 in 0.00 W/m2
20:34 35.3 °F 30.1 °F 29.90 in SSE 4.0 mph 4.0 mph 81% 0.00 in 0.00 W/m2
20:37 35.2 °F 30.0 °F 29.90 in SSE 2.0 mph 5.0 mph 81% 0.00 in 0.00 W/m2
20:39 35.0 °F 29.8 °F 29.89 in SSE 2.0 mph 3.0 mph 81% 0.00 in 0.00 W/m2
20:42 35.0 °F 30.1 °F 29.89 in SSE 3.0 mph 4.0 mph 82% 0.00 in 0.00 W/m2
20:43 34.9 °F 29.7 °F 29.89 in SSE 2.0 mph 3.0 mph 81% 0.00 in 0.00 W/m2
20:45 34.9 °F 30.0 °F 29.89 in SSE 2.0 mph 3.0 mph 82% 0.00 in 0.00 W/m2
20:47 34.8 °F 29.9 °F 29.89 in SSE 2.0 mph 3.0 mph 82% 0.00 in 0.00 W/m2
20:48 34.8 °F 29.9 °F 29.89 in SSE 5.0 mph 5.0 mph 82% 0.00 in 0.00 W/m2
20:50 34.7 °F 29.8 °F 29.89 in SSE 2.0 mph 5.0 mph 82% 0.00 in 0.00 W/m2
20:51 34.7 °F 29.8 °F 29.89 in SSE 3.0 mph 3.0 mph 82% 0.00 in 0.00 W/m2
20:52 34.7 °F 29.8 °F 29.89 in SSE 2.0 mph 3.0 mph 82% 0.00 in 0.00 W/m2
20:54 34.6 °F 29.7 °F 29.89 in SSE 3.0 mph 4.0 mph 82% 0.00 in 0.00 W/m2
20:55 34.6 °F 29.7 °F 29.89 in SSE 2.0 mph 3.0 mph 82% 0.00 in 0.00 W/m2
20:56 34.6 °F 29.7 °F 29.89 in SSE 3.0 mph 4.0 mph 82% 0.00 in 0.00 W/m2
20:57 34.6 °F 29.7 °F 29.89 in SSE 2.0 mph 4.0 mph 82% 0.00 in 0.00 W/m2
21:00 34.5 °F 29.6 °F 29.89 in SSE 2.0 mph 4.0 mph 82% 0.00 in 0.00 W/m2
21:01 34.5 °F 29.6 °F 29.89 in SSE 3.0 mph 3.0 mph 82% 0.00 in 0.00 W/m2
21:02 34.5 °F 29.6 °F 29.89 in SSE 3.0 mph 3.0 mph 82% 0.00 in 0.00 W/m2
21:05 34.4 °F 29.5 °F 29.88 in SSE 4.0 mph 6.0 mph 82% 0.00 in 0.00 W/m2
21:06 34.4 °F 29.5 °F 29.88 in SSE 3.0 mph 6.0 mph 82% 0.00 in 0.00 W/m2
21:07 34.3 °F 29.4 °F 29.88 in SSE 3.0 mph 6.0 mph 82% 0.00 in 0.00 W/m2
21:10 34.3 °F 29.4 °F 29.88 in SSE 2.0 mph 5.0 mph 82% 0.00 in 0.00 W/m2
21:12 34.3 °F 29.4 °F 29.88 in SSE 3.0 mph 3.0 mph 82% 0.00 in 0.00 W/m2
21:13 34.3 °F 29.4 °F 29.88 in SSE 5.0 mph 5.0 mph 82% 0.00 in 0.00 W/m2
21:15 34.3 °F 29.7 °F 29.88 in SSE 2.0 mph 3.0 mph 83% 0.00 in 0.00 W/m2
21:17 34.2 °F 29.6 °F 29.88 in SSE 3.0 mph 5.0 mph 83% 0.00 in 0.00 W/m2
21:18 34.2 °F 29.6 °F 29.88 in SSE 2.0 mph 4.0 mph 83% 0.00 in 0.00 W/m2
21:22 34.2 °F 29.6 °F 29.88 in SSE 4.0 mph 5.0 mph 83% 0.00 in 0.00 W/m2
21:23 34.2 °F 29.6 °F 29.88 in SSE 3.0 mph 4.0 mph 83% 0.00 in 0.00 W/m2
21:27 34.1 °F 29.5 °F 29.88 in SSE 4.0 mph 4.0 mph 83% 0.00 in 0.00 W/m2
21:28 34.1 °F 29.5 °F 29.88 in SSE 3.0 mph 4.0 mph 83% 0.00 in 0.00 W/m2
21:33 34.1 °F 29.5 °F 29.88 in SSE 3.0 mph 5.0 mph 83% 0.00 in 0.00 W/m2
21:34 34.1 °F 29.5 °F 29.88 in SSE 3.0 mph 4.0 mph 83% 0.00 in 0.00 W/m2
21:38 34.0 °F 29.4 °F 29.88 in SSE 4.0 mph 5.0 mph 83% 0.00 in 0.00 W/m2
21:39 34.0 °F 29.4 °F 29.87 in SSE 3.0 mph 5.0 mph 83% 0.00 in 0.00 W/m2
21:43 33.9 °F 29.3 °F 29.87 in SSE 3.0 mph 3.0 mph 83% 0.00 in 0.00 W/m2
21:44 33.9 °F 29.3 °F 29.88 in SSE 3.0 mph 3.0 mph 83% 0.00 in 0.00 W/m2
21:45 33.9 °F 29.3 °F 29.88 in SSE 3.0 mph 3.0 mph 83% 0.00 in 0.00 W/m2
21:48 33.9 °F 29.3 °F 29.88 in SSE 3.0 mph 3.0 mph 83% 0.00 in 0.00 W/m2
21:49 33.9 °F 29.6 °F 29.88 in SSE 3.0 mph 4.0 mph 84% 0.00 in 0.00 W/m2
21:50 33.9 °F 29.6 °F 29.88 in SSE 2.0 mph 4.0 mph 84% 0.00 in 0.00 W/m2
21:53 33.9 °F 29.6 °F 29.88 in SSE 2.0 mph 4.0 mph 84% 0.00 in 0.00 W/m2
21:55 33.9 °F 29.6 °F 29.87 in SSE 2.0 mph 4.0 mph 84% 0.00 in 0.00 W/m2
21:59 33.9 °F 29.6 °F 29.87 in SSE 3.0 mph 5.0 mph 84% 0.00 in 0.00 W/m2
22:00 33.8 °F 29.5 °F 29.87 in SSE 3.0 mph 5.0 mph 84% 0.00 in 0.00 W/m2
22:01 33.8 °F 29.5 °F 29.87 in SSE 4.0 mph 5.0 mph 84% 0.00 in 0.00 W/m2
22:04 33.8 °F 29.5 °F 29.87 in SSE 3.0 mph 5.0 mph 84% 0.00 in 0.00 W/m2
22:05 33.7 °F 29.4 °F 29.87 in SSE 3.0 mph 4.0 mph 84% 0.00 in 0.00 W/m2
22:06 33.8 °F 29.5 °F 29.87 in SSE 3.0 mph 5.0 mph 84% 0.00 in 0.00 W/m2
22:09 33.7 °F 29.4 °F 29.87 in SSE 4.0 mph 6.0 mph 84% 0.00 in 0.00 W/m2
22:10 33.7 °F 29.4 °F 29.87 in SSE 4.0 mph 6.0 mph 84% 0.00 in 0.00 W/m2
22:11 33.7 °F 29.4 °F 29.87 in SSE 4.0 mph 7.0 mph 84% 0.00 in 0.00 W/m2
22:12 33.7 °F 29.4 °F 29.87 in SSE 4.0 mph 7.0 mph 84% 0.00 in 0.00 W/m2
22:14 33.7 °F 29.4 °F 29.87 in SSE 3.0 mph 6.0 mph 84% 0.00 in 0.00 W/m2
22:15 33.7 °F 29.4 °F 29.87 in SSE 3.0 mph 6.0 mph 84% 0.00 in 0.00 W/m2
22:16 33.7 °F 29.4 °F 29.87 in SSE 4.0 mph 5.0 mph 84% 0.00 in 0.00 W/m2
22:17 33.7 °F 29.4 °F 29.87 in SSE 3.0 mph 5.0 mph 84% 0.00 in 0.00 W/m2
22:20 33.6 °F 29.3 °F 29.87 in SSE 4.0 mph 6.0 mph 84% 0.00 in 0.00 W/m2
22:21 33.6 °F 29.3 °F 29.87 in SSE 3.0 mph 6.0 mph 84% 0.00 in 0.00 W/m2
22:22 33.6 °F 29.3 °F 29.87 in SSE 3.0 mph 4.0 mph 84% 0.00 in 0.00 W/m2
22:25 33.6 °F 29.3 °F 29.87 in SSE 3.0 mph 5.0 mph 84% 0.00 in 0.00 W/m2
22:26 33.6 °F 29.3 °F 29.87 in SSE 2.0 mph 5.0 mph 84% 0.00 in 0.00 W/m2
22:27 33.6 °F 29.3 °F 29.87 in SSE 3.0 mph 4.0 mph 84% 0.00 in 0.00 W/m2
22:28 33.6 °F 29.3 °F 29.87 in SSE 5.0 mph 5.0 mph 84% 0.00 in 0.00 W/m2
22:30 33.5 °F 29.2 °F 29.87 in SSE 3.0 mph 4.0 mph 84% 0.00 in 0.00 W/m2
22:32 33.5 °F 29.2 °F 29.87 in SSE 6.0 mph 6.0 mph 84% 0.00 in 0.00 W/m2
22:33 33.5 °F 29.2 °F 29.87 in SSE 3.0 mph 6.0 mph 84% 0.00 in 0.00 W/m2
22:35 33.5 °F 29.2 °F 29.87 in SSE 5.0 mph 7.0 mph 84% 0.00 in 0.00 W/m2
22:37 33.5 °F 29.2 °F 29.87 in SSE 4.0 mph 5.0 mph 84% 0.00 in 0.00 W/m2
22:38 33.5 °F 29.2 °F 29.87 in SSE 4.0 mph 6.0 mph 84% 0.00 in 0.00 W/m2
22:41 33.4 °F 29.1 °F 29.87 in SSE 3.0 mph 7.0 mph 84% 0.00 in 0.00 W/m2
22:43 33.4 °F 29.1 °F 29.86 in SSE 7.0 mph 7.0 mph 84% 0.00 in 0.00 W/m2
22:44 33.4 °F 29.1 °F 29.86 in SSE 4.0 mph 7.0 mph 84% 0.00 in 0.00 W/m2
22:46 33.3 °F 29.0 °F 29.86 in SSE 6.0 mph 7.0 mph 84% 0.00 in 0.00 W/m2
22:48 33.3 °F 29.0 °F 29.86 in SSE 3.0 mph 7.0 mph 84% 0.00 in 0.00 W/m2
22:49 33.3 °F 29.0 °F 29.86 in SSE 4.0 mph 6.0 mph 84% 0.00 in 0.00 W/m2
22:51 33.3 °F 29.0 °F 29.86 in SSE 3.0 mph 6.0 mph 84% 0.00 in 0.00 W/m2
22:53 33.3 °F 29.0 °F 29.86 in SSE 3.0 mph 5.0 mph 84% 0.00 in 0.00 W/m2
22:55 33.3 °F 29.0 °F 29.86 in SSE 3.0 mph 5.0 mph 84% 0.00 in 0.00 W/m2
22:56 33.3 °F 30.7 °F 29.86 in SSE 4.0 mph 4.0 mph 90% 0.00 in 0.00 W/m2
22:58 33.3 °F 30.7 °F 29.86 in SSE 3.0 mph 10.0 mph 90% 0.00 in 0.00 W/m2
23:00 33.3 °F 30.7 °F 29.86 in SSE 5.0 mph 6.0 mph 90% 0.00 in 0.00 W/m2
23:02 33.3 °F 30.7 °F 29.86 in SSE 5.0 mph 7.0 mph 90% 0.00 in 0.00 W/m2
23:05 33.3 °F 29.0 °F 29.86 in SSE 4.0 mph 9.0 mph 84% 0.00 in 0.00 W/m2
23:07 33.4 °F 29.4 °F 29.86 in SSE 5.0 mph 6.0 mph 85% 0.00 in 0.00 W/m2
23:08 33.4 °F 29.4 °F 29.86 in SSE 4.0 mph 6.0 mph 85% 0.00 in 0.00 W/m2
23:10 33.5 °F 29.5 °F 29.86 in SSE 3.0 mph 5.0 mph 85% 0.00 in 0.00 W/m2
23:11 33.5 °F 29.5 °F 29.86 in SSE 2.0 mph 4.0 mph 85% 0.00 in 0.00 W/m2
23:12 33.5 °F 29.5 °F 29.86 in SSE 6.0 mph 6.0 mph 85% 0.00 in 0.00 W/m2
23:15 33.5 °F 29.5 °F 29.86 in SSE 3.0 mph 6.0 mph 85% 0.00 in 0.00 W/m2
23:16 33.5 °F 29.5 °F 29.85 in SSE 2.0 mph 6.0 mph 85% 0.00 in 0.00 W/m2
23:17 33.5 °F 29.5 °F 29.85 in SSE 4.0 mph 6.0 mph 85% 0.00 in 0.00 W/m2
23:18 33.5 °F 29.5 °F 29.86 in SSE 4.0 mph 6.0 mph 85% 0.00 in 0.00 W/m2
23:21 33.6 °F 29.6 °F 29.86 in SSE 2.0 mph 7.0 mph 85% 0.00 in 0.00 W/m2
23:23 33.7 °F 29.7 °F 29.86 in SSE 6.0 mph 6.0 mph 85% 0.00 in 0.00 W/m2
23:26 33.8 °F 29.8 °F 29.86 in SSE 4.0 mph 6.0 mph 85% 0.00 in 0.00 W/m2
23:28 33.8 °F 29.8 °F 29.85 in SSE 2.0 mph 7.0 mph 85% 0.00 in 0.00 W/m2
23:29 33.8 °F 29.8 °F 29.85 in SSE 3.0 mph 6.0 mph 85% 0.00 in 0.00 W/m2
23:31 33.8 °F 29.8 °F 29.85 in SSE 3.0 mph 4.0 mph 85% 0.00 in 0.00 W/m2
23:32 33.8 °F 29.8 °F 29.85 in SSE 2.0 mph 4.0 mph 85% 0.00 in 0.00 W/m2
23:33 33.8 °F 29.5 °F 29.86 in SSE 4.0 mph 6.0 mph 84% 0.00 in 0.00 W/m2
23:34 33.8 °F 29.5 °F 29.86 in SSE 3.0 mph 6.0 mph 84% 0.00 in 0.00 W/m2
23:36 33.8 °F 29.5 °F 29.86 in SSE 4.0 mph 9.0 mph 84% 0.00 in 0.00 W/m2
23:37 33.7 °F 29.4 °F 29.86 in SSE 4.0 mph 7.0 mph 84% 0.00 in 0.00 W/m2
23:38 33.7 °F 29.4 °F 29.85 in SSE 4.0 mph 9.0 mph 84% 0.00 in 0.00 W/m2
23:39 33.7 °F 29.4 °F 29.85 in SSE 2.0 mph 9.0 mph 84% 0.00 in 0.00 W/m2
23:41 33.7 °F 29.4 °F 29.85 in Calm   4.0 mph 84% 0.00 in 0.00 W/m2
23:43 33.7 °F 29.4 °F 29.85 in SSE 3.0 mph 4.0 mph 84% 0.00 in 0.00 W/m2
23:44 33.7 °F 29.4 °F 29.85 in SSE 1.0 mph 4.0 mph 84% 0.00 in 0.00 W/m2
23:46 33.6 °F 29.3 °F 29.86 in SSE 2.0 mph 4.0 mph 84% 0.00 in 0.00 W/m2
23:49 33.5 °F 29.2 °F 29.85 in SSE 4.0 mph 5.0 mph 84% 0.00 in 0.00 W/m2
23:51 33.4 °F 29.1 °F 29.85 in SSE 4.0 mph 5.0 mph 84% 0.00 in 0.00 W/m2
23:53 33.4 °F 29.1 °F 29.85 in SSE 3.0 mph 4.0 mph 84% 0.00 in 0.00 W/m2
23:54 33.3 °F 29.0 °F 29.85 in SSE 1.0 mph 4.0 mph 84% 0.00 in 0.00 W/m2
23:55 33.2 °F 28.9 °F 29.85 in SSE 3.0 mph 4.0 mph 84% 0.00 in 0.00 W/m2
23:57 33.1 °F 28.8 °F 29.85 in SSE 3.0 mph 4.0 mph 84% 0.00 in 0.00 W/m2
23:58 33.1 °F 28.8 °F 29.85 in SSE 2.0 mph 4.0 mph 84% 0.00 in 0.00 W/m2
Peotone Weather Data
Compliments of Weather Underground